GFSMA_700_spd_042.txt.gz
Wind_Speed
11 10 12 11 13 15 19 17 14 14 14 18 21 24 26 28 29 30 32 33 33 32 32 31 26 23 23 23 25 26 25 23 21 22 22 23 23 23 24 25 27 28 29
12 13 14 14 16 19 20 16 16 18 19 22 26 28 29 30 32 34 34 35 35 34 33 34 34 33 31 30 29 28 29 31 31 30 28 28 29 30 30 31 32 33 35
13 14 15 17 20 20 17 16 18 19 21 25 29 32 33 34 36 37 39 39 38 37 37 37 38 39 39 39 38 37 38 38 37 36 38 38 39 37 36 36 36 36 38
13 14 18 18 17 15 15 15 16 19 23 27 31 34 37 37 38 40 41 43 44 42 42 42 41 41 42 42 43 43 43 42 43 45 45 49 51 51 51 48 43 42 44
12 17 16 15 14 14 14 15 17 21 26 31 35 36 39 39 39 41 43 45 45 44 44 43 43 43 44 45 45 46 48 48 48 50 52 54 56 57 58 59 58 59 56
15 19 18 16 13 14 16 18 21 27 32 35 37 39 40 42 44 44 44 44 44 44 44 45 46 46 46 46 48 49 49 50 50 50 51 53 54 56 59 62 65 66 65
17 20 17 15 15 16 19 22 26 31 34 37 40 42 42 44 47 48 44 46 46 46 47 47 48 48 48 48 49 50 49 48 47 46 45 46 48 50 54 58 62 66 67
19 20 18 18 18 19 23 27 32 36 39 42 39 41 42 41 42 45 47 49 48 47 49 50 51 51 51 51 50 49 47 45 43 42 41 42 43 45 47 49 50 52 52
19 20 19 20 21 24 29 32 36 39 37 37 42 44 42 39 41 44 48 47 47 50 51 50 52 52 53 52 50 47 45 44 42 40 41 42 43 46 47 46 45 46 45
19 19 20 21 24 29 32 34 36 38 45 46 47 48 46 43 46 50 48 47 48 51 52 51 49 48 49 48 45 44 45 44 42 41 42 44 45 45 45 45 44 43 41
20 21 22 25 28 32 36 39 44 38 43 47 48 45 41 48 49 47 51 50 53 51 51 49 48 47 47 44 41 41 42 41 41 39 41 43 44 44 45 43 41 41 40
24 25 27 30 34 38 41 43 41 46 39 47 46 43 49 44 43 47 50 53 53 48 46 43 41 43 42 39 40 39 38 41 41 41 44 47 43 43 44 44 43 41 41
28 30 33 36 39 40 47 42 41 47 45 47 42 49 45 44 47 48 50 48 48 45 48 45 43 38 35 32 32 35 38 41 44 49 50 50 44 43 44 44 44 43 43
31 34 36 37 44 45 44 45 42 45 47 49 49 41 42 44 46 44 42 42 44 44 45 43 41 35 31 30 34 39 42 44 46 48 47 44 44 45 46 47 47 46 45
33 33 42 37 41 33 43 37 39 44 47 51 41 39 43 45 41 41 41 40 41 40 42 40 39 37 37 37 37 38 39 40 40 42 44 44 44 44 44 43 42 40 38
28 31 33 34 36 43 44 46 48 49 45 39 37 43 45 41 39 38 37 37 37 37 39 38 38 38 38 38 38 38 38 39 41 42 42 41 41 40 39 38 36 34 32
28 27 32 35 40 38 43 46 44 50 44 39 44 42 36 36 35 36 37 37 37 36 36 35 35 36 36 36 37 38 39 40 40 40 40 39 37 35 34 33 33 32 32
31 36 30 41 46 45 46 50 46 39 42 43 41 34 32 35 35 37 37 37 36 36 37 36 34 34 34 33 36 37 38 39 39 38 38 36 33 32 32 33 33 33 33
34 33 44 39 43 41 49 50 38 40 41 41 33 32 34 37 38 39 38 37 37 37 36 36 34 33 32 33 34 35 35 35 35 36 35 32 31 31 31 30 30 29 29
38 39 44 46 51 45 36 40 39 39 41 33 32 33 37 38 39 39 38 37 37 36 35 35 33 32 31 32 33 34 32 32 32 31 29 28 30 27 27 28 27 27 26
41 39 39 45 42 34 40 36 36 36 32 31 33 36 37 39 39 39 38 36 37 36 35 34 32 31 30 30 30 31 33 31 29 28 26 27 26 24 24 26 26 25 23
39 49 45 41 35 42 32 30 30 29 30 33 35 36 38 39 39 39 37 36 36 35 35 34 31 29 29 28 28 30 31 32 29 27 24 20 22 21 20 20 22 24 22
53 40 40 35 43 34 29 28 27 31 33 34 36 37 38 38 39 38 37 36 34 34 33 32 30 28 28 27 27 27 29 31 28 26 26 21 19 16 16 17 20 22 21
39 37 39 43 32 29 28 28 31 34 35 36 36 37 38 38 38 38 37 35 33 32 32 31 29 27 27 26 26 26 28 30 28 25 26 26 19 17 13 17 18 18 19
43 41 41 30 31 29 31 32 35 37 38 37 38 40 39 38 36 37 36 34 32 30 31 30 28 27 26 25 25 26 27 29 29 24 22 26 23 18 14 15 14 16 20
40 40 32 34 33 33 35 36 38 40 40 40 41 42 40 39 37 36 35 33 31 29 30 28 27 27 26 25 24 25 27 29 30 28 24 24 22 25 21 14 11 18 23

GFSMA_700_spd_045.txt.gz
Wind_Speed
9 10 10 9 10 10 14 17 13 12 12 13 16 19 21 24 26 28 30 30 30 30 31 30 29 27 24 24 26 26 27 28 25 23 24 24 26 27 26 25 26 26 26
11 11 10 12 13 15 17 15 12 12 13 15 17 21 24 27 29 30 31 32 32 32 34 35 35 32 32 30 29 30 32 31 31 31 30 28 30 30 29 32 33 34 33
12 10 12 13 16 17 13 13 12 12 15 18 21 25 28 29 29 30 31 32 34 36 37 39 39 40 39 39 38 37 37 38 38 38 37 36 36 36 37 37 37 39 41
11 10 11 11 11 12 12 13 13 14 17 22 26 30 31 32 30 30 32 34 36 38 38 39 41 42 43 44 44 44 44 43 44 44 45 45 46 45 44 45 44 42 43
12 11 10 11 12 14 11 12 15 17 21 25 29 31 33 34 35 37 38 37 37 38 40 41 41 43 45 46 47 48 49 50 49 49 50 50 51 52 52 52 52 51 47
11 12 13 14 14 12 13 14 17 20 24 27 30 34 38 33 35 40 41 37 37 40 42 43 44 46 48 49 51 51 51 51 53 54 54 54 55 56 56 56 55 56 56
12 15 16 15 14 14 16 17 21 23 25 28 31 34 39 39 41 46 43 41 41 45 47 47 45 48 51 54 54 53 53 53 54 55 54 54 53 52 54 55 55 54 55
14 15 16 16 16 17 19 22 23 26 28 32 34 41 42 39 44 45 39 39 47 49 48 47 48 50 52 54 55 55 55 56 54 53 53 53 51 47 45 46 48 49 48
16 15 16 17 19 20 22 23 25 29 33 38 42 39 39 42 46 36 43 42 43 43 44 46 50 53 54 54 54 54 53 53 52 50 47 44 42 41 40 40 41 42 41
17 16 18 19 21 23 24 27 31 34 36 41 41 37 40 44 38 44 44 39 41 41 45 50 51 51 52 52 51 51 50 49 48 47 46 44 41 40 38 39 41 42 42
19 19 21 22 24 26 28 32 35 39 43 42 37 40 39 39 41 45 46 45 43 43 46 47 47 47 47 49 50 49 48 47 46 45 44 42 42 42 42 44 44 43 42
23 22 24 26 28 32 34 36 41 42 43 38 46 39 38 41 42 42 43 44 46 45 43 43 42 42 42 43 43 42 41 41 40 39 39 41 43 44 47 47 46 43 43
25 24 29 30 30 34 38 39 47 39 45 41 38 42 41 45 39 42 43 42 41 41 42 41 40 41 41 40 39 39 38 38 39 41 44 46 45 45 46 45 44 43 43
25 27 31 31 30 32 41 35 36 37 39 42 40 38 42 40 41 42 38 37 39 39 40 41 39 40 41 40 39 38 38 39 40 41 42 42 42 43 44 44 44 44 44
25 26 27 30 33 36 38 36 34 33 37 41 42 38 36 40 40 37 34 34 36 39 39 40 38 40 40 40 39 38 38 38 37 37 38 40 41 43 43 43 42 41 40
26 24 27 30 33 32 34 41 41 45 44 45 43 39 39 40 36 32 33 33 36 38 38 37 38 38 37 37 38 38 37 36 36 37 39 40 41 40 39 38 37 36 35
26 27 28 29 34 37 36 39 38 43 42 39 39 39 37 36 32 32 34 35 36 36 39 37 38 35 35 35 36 36 35 35 36 36 38 39 39 38 36 35 34 32 30
28 29 29 34 38 40 35 45 49 43 35 40 37 35 34 32 32 34 36 36 36 37 39 39 36 36 34 34 35 34 34 34 34 36 38 39 38 35 33 31 29 28 28
31 35 32 40 39 41 41 38 35 33 36 35 33 34 30 32 34 36 36 36 37 39 38 38 36 36 33 34 33 32 31 31 32 33 36 37 35 32 30 28 28 26 25
32 33 36 36 40 44 45 35 31 36 34 32 33 30 31 34 35 36 37 37 38 38 37 37 37 34 33 33 32 31 30 29 29 31 33 35 33 30 27 25 25 22 22
33 34 36 44 44 43 36 32 37 33 31 31 30 31 33 34 36 36 37 38 38 37 37 37 36 34 32 32 31 30 29 28 27 29 31 33 30 28 26 24 22 20 20
33 45 41 46 36 34 34 36 30 31 30 31 31 32 33 35 36 37 37 38 38 36 35 36 34 32 32 31 30 29 28 28 28 29 30 31 28 24 23 20 17 15 18
35 45 42 34 37 36 39 33 29 31 32 31 33 34 34 36 38 38 38 39 39 36 35 35 33 31 32 30 29 28 27 27 27 28 30 32 29 24 22 19 17 16 17
37 32 33 37 38 37 31 29 29 31 32 34 36 36 37 38 39 38 38 39 37 37 34 34 33 30 30 29 28 27 27 27 26 27 30 32 29 25 21 18 19 18 18
31 37 37 37 33 31 31 30 32 35 37 38 38 39 39 40 39 39 39 39 37 35 33 33 31 30 29 28 27 27 26 27 25 26 28 32 27 25 21 17 20 18 19
36 33 31 33 32 31 31 35 37 40 41 41 42 42 41 41 41 40 39 38 36 31 33 31 29 29 29 28 26 26 26 26 26 26 29 31 28 26 23 15 19 21 23

GFSMA_700_spd_048.txt.gz
Wind_Speed
11 9 7 6 8 9 9 13 14 11 9 8 9 11 15 19 22 23 23 23 24 25 26 27 26 24 23 23 23 24 23 25 27 28 27 28 29 29 28 29 28 30 30
13 11 9 10 11 11 14 16 15 11 10 10 12 15 20 23 24 26 26 25 27 28 28 29 28 28 29 29 28 29 31 31 30 30 31 33 32 34 36 35 33 32 33
12 12 12 10 12 15 17 15 13 11 11 13 15 18 22 24 27 26 24 29 30 30 30 30 32 33 34 34 33 33 35 37 38 38 38 38 38 38 37 39 40 41 42
13 12 12 12 14 13 13 14 13 12 14 15 17 20 23 25 26 24 25 31 31 33 32 32 36 38 38 38 38 39 39 41 43 44 45 45 44 44 43 42 42 43 44
15 15 15 12 11 13 14 14 13 13 16 18 20 22 25 26 31 32 26 30 35 32 31 35 38 41 39 39 40 43 45 48 49 49 49 50 49 50 51 51 51 51 51
16 16 16 15 14 13 15 14 14 15 18 20 23 25 27 30 36 32 32 36 38 32 34 37 41 43 40 38 41 45 49 51 52 53 53 53 54 54 55 55 56 56 55
16 17 17 17 15 14 15 15 16 18 20 22 25 29 34 36 33 31 35 38 34 36 33 35 36 37 40 45 47 47 50 52 52 54 55 55 54 54 53 53 52 52 53
17 18 17 17 15 16 17 18 19 21 24 25 26 31 37 45 42 40 39 34 36 37 39 39 40 40 42 43 49 52 53 52 52 52 52 51 50 49 49 48 45 45 45
17 18 17 16 16 19 20 21 22 23 27 27 29 32 38 39 38 42 37 34 36 37 38 40 41 44 44 45 47 49 52 49 51 51 51 51 50 48 47 45 43 43 42
20 21 18 18 19 21 23 24 24 26 29 33 36 37 37 38 41 34 42 42 37 37 38 40 41 43 43 42 45 48 47 48 48 49 48 47 46 46 45 43 41 41 42
26 24 21 22 22 24 26 26 27 31 34 35 41 46 38 39 33 32 36 34 40 41 42 38 38 39 39 40 41 44 44 45 46 47 47 46 45 42 40 41 42 43 44
27 28 27 26 26 26 27 26 29 34 39 42 39 39 33 36 33 34 37 36 39 39 40 38 34 36 37 38 40 40 42 43 44 44 43 44 43 44 44 45 46 45 45
29 27 26 27 28 29 29 30 34 31 38 38 34 32 31 34 37 36 36 38 39 36 36 37 37 36 37 38 38 39 40 43 41 41 41 42 42 42 43 43 43 44 44
29 27 27 26 30 31 29 35 34 42 35 31 37 43 38 36 39 38 38 38 35 34 34 36 40 40 40 38 38 38 38 41 41 39 39 39 39 40 40 42 42 44 44
27 28 30 32 29 30 32 35 39 45 43 36 38 41 39 33 36 38 37 34 33 35 35 34 36 39 40 39 40 40 38 39 38 39 38 38 38 39 40 41 42 42 42
29 33 39 35 28 30 32 38 40 39 42 33 42 42 36 34 37 38 36 32 33 36 39 36 34 33 36 36 38 38 37 35 36 36 34 35 36 37 39 40 40 39 39
37 40 30 31 33 30 36 45 45 37 39 35 39 38 35 34 36 37 33 33 34 36 37 36 31 28 37 37 36 37 35 35 34 34 32 32 33 35 38 37 36 34 34
32 27 30 35 33 36 35 42 55 39 40 36 33 36 34 36 38 32 32 35 36 36 34 38 33 31 31 37 36 36 34 35 33 31 31 31 32 35 37 35 32 30 28
26 29 35 37 30 39 36 33 40 45 38 33 35 35 33 36 33 32 35 37 37 30 36 37 35 32 33 34 37 36 34 34 32 31 30 31 31 34 35 32 29 26 25
32 33 33 37 39 35 42 36 39 38 35 36 36 33 34 31 31 33 36 38 37 38 36 31 31 33 30 29 35 35 34 33 31 29 29 31 32 34 33 30 25 23 22
34 34 35 35 35 37 36 40 35 34 38 38 37 33 31 31 33 35 37 36 36 40 41 31 33 31 29 26 29 33 35 33 30 28 28 29 32 32 31 30 26 23 19
37 31 34 35 33 36 32 32 34 38 37 32 31 31 33 35 36 37 38 38 38 39 41 41 38 38 35 30 34 35 33 32 30 28 27 28 30 30 30 28 25 23 20
33 26 35 35 29 29 33 36 33 32 32 30 31 34 36 37 39 39 39 39 40 40 40 40 38 39 38 35 36 34 32 31 29 27 27 27 28 29 31 27 23 23 22
32 29 31 30 33 34 31 31 33 33 34 33 35 37 39 40 41 42 39 42 42 41 40 37 37 36 36 35 35 32 31 29 27 25 27 28 27 28 30 27 23 23 23
27 28 31 31 30 30 31 31 32 35 37 37 39 41 42 43 42 42 41 43 41 40 36 36 35 36 34 33 31 31 29 29 26 24 26 27 28 28 29 27 22 23 25
22 23 25 28 30 30 31 32 35 39 41 43 44 46 47 47 44 44 44 42 41 36 34 34 35 36 33 31 29 28 27 27 25 23 25 26 27 29 30 28 23 21 23

GFSMA_700_spd_051.txt.gz
Wind_Speed
15 12 9 8 7 6 9 10 12 12 8 7 6 7 9 11 13 15 16 14 15 18 21 22 22 21 20 21 21 21 20 21 22 24 25 26 28 30 32 31 28 28 29
17 14 11 10 9 10 12 14 16 13 10 8 9 10 11 13 16 17 20 16 19 23 24 26 25 25 25 26 25 25 26 25 25 26 27 29 30 31 32 34 38 38 35
16 14 13 12 11 12 15 17 14 13 11 11 11 12 13 15 16 18 24 29 23 24 28 29 28 27 29 31 30 28 28 29 30 31 32 34 36 37 38 38 37 39 43
18 17 15 14 13 14 17 15 15 14 13 13 13 14 16 18 19 21 25 24 25 32 28 27 28 31 31 31 31 30 29 30 34 37 39 39 40 40 42 44 43 43 42
19 18 16 15 13 14 16 16 16 15 15 15 16 17 19 22 24 26 29 25 24 30 30 32 27 30 31 32 34 34 35 39 41 42 43 45 48 48 47 47 49 50 51
20 19 18 18 16 19 18 17 16 16 18 18 19 21 21 24 26 29 32 29 31 28 27 29 34 37 37 36 36 35 37 40 42 45 47 49 50 52 54 54 53 53 54
20 20 20 18 20 22 20 17 18 19 20 19 21 26 29 29 30 34 35 33 38 36 33 32 32 32 36 40 42 44 42 39 40 43 45 48 51 54 55 55 56 54 50
19 21 22 20 23 24 21 19 20 21 23 20 23 27 29 32 41 44 41 44 38 34 36 39 36 35 35 37 41 45 47 40 38 41 44 47 49 51 53 53 52 51 49
22 24 24 24 24 24 21 21 20 21 26 26 26 28 31 34 37 42 46 36 35 36 37 35 36 39 43 41 37 39 40 41 44 44 45 47 48 51 53 54 52 49 48
21 22 24 26 25 25 24 22 22 24 25 32 33 29 32 36 34 33 35 40 41 35 38 37 36 38 39 39 37 40 39 41 43 43 45 46 48 50 52 53 52 48 45
23 25 28 28 27 27 27 25 26 26 29 31 36 38 34 37 37 29 29 25 36 38 39 43 40 37 37 36 39 43 41 42 43 44 44 46 47 48 48 47 46 45 44
25 27 29 31 32 31 32 30 31 31 33 33 38 33 32 34 35 37 38 34 33 35 39 43 44 38 36 38 41 43 41 43 45 43 44 45 46 45 44 42 41 42 43
28 29 32 32 32 33 32 34 34 34 31 35 32 41 43 33 34 41 37 34 34 36 38 37 39 39 39 40 41 43 43 40 42 41 40 43 43 41 40 39 39 40 41
31 32 33 33 33 33 38 35 33 42 32 38 38 48 40 34 38 36 38 34 35 37 37 36 33 35 38 41 43 43 41 40 41 40 40 39 38 38 38 36 36 37 40
33 33 32 33 34 39 38 40 37 38 39 33 45 44 41 38 37 36 33 36 36 39 40 34 30 33 36 39 44 45 42 41 39 38 38 37 37 37 35 33 34 36 39
33 32 32 33 34 37 43 34 34 36 36 41 40 49 38 39 38 33 35 35 36 40 39 31 31 35 37 37 41 45 40 39 38 36 36 34 34 34 32 32 34 37 40
29 31 32 35 39 33 34 35 35 29 35 41 47 44 43 39 34 34 35 38 40 38 37 36 34 34 34 38 39 43 43 40 38 36 35 33 34 32 32 33 34 37 39
30 32 34 35 32 37 35 37 37 43 38 46 38 44 42 37 37 37 40 39 37 37 39 39 39 37 37 36 37 39 42 40 35 33 34 32 32 32 31 33 35 36 36
33 33 34 36 33 34 36 41 43 42 45 45 40 40 39 39 40 42 38 38 37 39 38 38 38 38 38 34 37 37 39 41 38 32 34 34 31 31 30 31 33 34 34
35 35 36 37 37 38 36 39 36 40 44 40 40 39 40 41 42 37 35 37 39 36 38 39 37 42 36 33 36 34 39 33 34 38 33 33 31 32 30 32 33 31 31
36 36 37 37 37 35 36 37 43 41 40 39 39 40 40 38 37 35 36 38 38 39 42 43 45 42 39 35 36 34 38 41 39 36 34 32 29 30 30 32 33 34 32
36 36 38 37 35 38 38 39 38 37 39 39 36 36 37 36 36 37 38 40 42 43 43 43 46 44 44 47 41 39 39 43 40 33 31 32 29 29 30 31 31 30 30
36 37 38 38 36 37 34 34 37 36 36 36 35 36 37 37 38 40 43 46 43 43 45 45 47 44 43 43 39 41 46 41 40 35 34 32 28 28 28 30 31 31 31
36 36 34 31 30 31 32 33 35 36 37 37 37 38 40 41 42 44 45 46 49 49 45 44 44 42 40 38 37 39 40 40 37 34 32 31 27 26 27 28 30 31 29
31 30 28 27 26 29 29 32 34 35 37 38 39 41 43 44 45 46 49 50 49 48 46 45 44 41 40 39 35 33 37 37 36 33 29 27 26 26 26 27 29 31 28
25 24 24 25 27 27 32 32 33 37 40 43 44 45 46 47 48 49 51 51 46 45 43 42 43 42 40 38 35 36 32 32 32 32 26 23 24 26 27 26 28 30 28

GFSMA_700_spd_054.txt.gz
Wind_Speed
18 15 13 8 7 6 5 8 10 10 9 6 5 6 6 9 12 11 10 11 12 13 14 16 17 18 18 19 20 21 20 21 21 22 22 23 23 24 25 27 29 29 28
18 14 11 9 9 6 7 10 11 13 9 7 8 8 9 10 11 13 10 15 17 15 17 20 21 22 20 20 21 22 22 23 23 24 24 25 27 27 27 28 30 31 33
19 14 12 11 9 9 11 13 12 12 11 11 9 11 11 12 11 13 21 19 19 19 22 26 26 24 24 22 23 23 24 25 26 27 29 30 31 31 32 32 33 34 35
17 16 14 12 11 11 13 13 13 14 15 14 12 13 15 14 14 16 18 27 26 22 21 22 27 26 25 26 26 26 28 28 30 32 35 37 38 38 38 38 39 39 39
20 16 15 14 14 14 13 13 15 16 16 16 16 17 17 18 18 20 22 23 24 32 33 32 31 27 27 28 28 29 28 31 35 36 37 36 36 36 37 39 41 45 49
17 17 17 17 17 17 17 16 17 18 19 18 18 22 20 19 23 25 24 26 30 30 33 34 29 32 30 31 30 31 31 35 37 37 36 35 36 38 40 42 44 45 47
18 19 20 20 18 21 21 19 19 21 19 20 21 24 27 25 26 28 31 35 36 32 25 25 28 33 37 35 36 38 37 34 33 33 36 39 41 43 45 47 48 49 51
19 20 21 21 18 24 22 22 22 22 22 22 23 26 28 32 33 31 36 38 35 34 33 32 32 32 33 34 38 41 40 37 33 35 37 39 42 43 46 49 51 52 52
17 18 20 23 21 23 25 25 24 25 24 26 23 26 29 29 32 37 38 40 39 32 31 32 34 38 34 38 40 39 36 34 38 39 39 40 42 44 47 50 51 52 53
17 19 20 23 24 23 27 27 28 28 26 28 29 28 30 30 34 38 38 39 39 36 38 41 38 33 33 39 42 43 35 35 37 40 41 43 45 47 48 49 49 50 50
17 19 20 23 24 27 29 30 30 30 29 28 33 36 31 33 38 37 34 32 37 38 39 42 44 44 36 39 41 42 38 35 38 41 42 45 47 49 48 47 47 47 46
18 21 23 26 26 27 30 32 34 35 34 35 33 37 37 36 36 42 46 33 32 35 34 38 41 42 41 38 43 45 40 37 38 42 44 45 47 47 46 46 44 42 40
21 22 25 26 27 29 31 32 36 36 39 38 39 36 31 36 43 47 39 35 38 33 37 35 36 39 44 46 47 44 41 40 40 42 43 43 44 44 44 43 40 38 38
24 27 27 28 28 30 29 35 38 37 33 33 37 36 36 41 47 45 40 39 36 39 34 33 34 40 43 43 44 44 46 43 43 43 42 42 42 42 41 41 37 36 35
29 31 28 28 30 32 34 33 37 36 39 34 39 37 36 37 46 42 39 39 38 38 37 35 39 37 37 40 41 43 45 46 46 44 42 40 40 40 39 39 37 35 34
29 29 30 30 30 33 34 34 35 42 35 40 38 31 35 41 45 39 43 40 37 38 43 43 38 35 36 37 39 42 44 45 46 45 42 39 37 37 36 36 34 33 33
25 28 28 29 31 32 35 33 32 44 35 35 37 41 42 46 38 40 40 40 39 39 45 41 39 36 37 38 39 40 42 46 46 45 43 38 37 34 34 34 32 31 33
25 28 30 31 32 33 31 34 33 37 36 35 34 42 43 38 40 41 37 39 39 40 39 43 39 39 40 38 40 40 43 46 44 45 44 42 36 34 34 31 31 31 32
28 31 32 33 34 34 34 34 38 36 37 39 40 41 44 44 42 39 40 39 39 38 39 40 42 41 39 39 42 42 47 44 44 45 46 47 44 40 38 33 31 31 31
33 35 36 36 36 35 38 39 40 40 40 39 38 42 38 38 41 39 37 37 36 37 38 39 42 44 45 44 45 44 46 44 43 46 48 48 46 43 39 34 31 31 31
35 35 36 36 37 37 37 38 37 36 37 37 34 35 37 37 37 36 36 36 37 39 40 43 46 48 49 46 47 45 45 48 47 51 48 47 48 41 36 31 33 32 31
36 35 34 34 35 35 37 38 37 35 33 34 35 35 35 35 36 38 39 39 39 42 45 46 47 48 48 48 47 49 49 48 49 46 45 47 43 38 35 33 32 31 30
32 33 34 35 35 34 33 31 30 32 32 32 34 36 37 37 37 38 40 42 45 46 47 50 50 48 47 43 43 45 45 45 46 44 44 43 38 38 35 31 29 27 28
33 34 34 33 33 32 31 30 30 30 32 33 34 35 36 38 39 41 45 47 50 51 52 51 50 49 48 46 45 42 41 42 41 36 34 37 35 35 32 29 26 25 27
33 33 32 30 30 31 29 27 29 32 33 33 34 36 39 40 41 43 48 51 54 55 54 52 48 46 46 45 43 43 40 38 38 33 28 31 32 33 32 25 23 26 25
31 29 28 27 28 32 31 27 28 32 33 35 37 38 39 42 45 48 53 56 59 58 55 53 47 45 44 43 42 42 41 40 37 33 29 29 31 32 31 23 23 24 24

GFSMA_700_spd_057.txt.gz
Wind_Speed
25 22 17 13 9 5 3 1 4 5 5 2 5 5 7 7 7 7 7 9 9 8 7 9 12 15 17 17 16 16 16 15 16 17 17 18 18 19 20 20 21 23 24
29 20 19 13 9 6 6 4 6 7 5 5 6 7 9 11 8 8 8 11 13 13 12 14 14 12 17 19 17 18 18 18 20 21 21 22 24 25 26 26 27 27 26
23 23 16 11 9 10 8 6 9 8 6 6 7 9 10 10 13 10 10 11 13 15 16 17 15 20 23 17 17 18 19 21 22 23 25 29 31 31 31 29 26 26 26
28 19 16 14 11 8 9 8 10 10 10 8 7 11 12 12 14 17 15 16 18 18 21 24 24 24 22 20 20 21 22 23 24 27 29 32 33 32 31 31 31 31 33
23 20 17 14 13 10 12 11 12 13 13 12 12 12 13 14 16 17 22 24 25 25 26 23 21 21 23 24 25 23 22 26 30 32 33 32 32 32 33 34 36 37 38
23 20 19 16 15 14 14 15 15 15 16 16 16 16 16 18 19 21 20 23 28 33 32 27 26 24 23 26 27 26 24 27 31 34 36 34 33 35 36 37 38 39 41
24 22 20 17 16 16 17 18 18 17 18 19 21 19 21 23 23 25 26 28 30 30 29 33 29 26 27 29 34 32 30 28 31 35 35 35 37 38 39 40 41 43 45
25 22 20 18 15 18 20 19 19 20 21 21 22 24 27 28 27 28 31 33 35 35 33 32 29 29 31 34 36 37 34 32 31 33 35 38 39 39 40 41 42 45 47
21 20 18 18 16 19 21 22 22 23 25 25 24 27 30 32 32 30 31 33 37 37 36 39 33 33 33 33 36 39 36 31 32 36 38 38 37 38 40 42 44 47 50
17 17 19 20 17 18 23 22 23 25 27 28 30 30 34 37 33 34 32 32 39 38 44 40 35 37 36 35 39 39 35 33 38 39 38 37 37 40 42 44 46 49 51
16 17 17 20 20 18 19 23 25 25 28 34 35 38 34 37 33 36 33 34 38 39 41 40 42 41 38 41 38 36 39 43 43 38 36 36 39 42 44 46 48 48 48
15 16 18 17 19 21 22 24 25 29 31 31 36 36 38 44 40 35 31 35 38 43 43 37 40 40 43 42 43 43 46 45 41 37 34 36 39 41 44 45 46 46 46
18 16 18 21 21 21 22 24 26 26 38 27 33 35 39 45 39 37 35 36 40 39 39 36 38 38 38 41 46 49 49 43 38 35 35 36 38 39 41 43 44 44 45
22 20 22 22 24 22 25 27 28 28 31 32 36 32 30 38 36 35 36 44 45 40 37 39 34 36 37 41 47 48 44 42 43 42 39 39 40 41 41 41 43 44 43
26 21 23 24 25 24 26 27 28 30 30 36 30 33 36 36 31 35 33 44 44 41 41 36 37 33 37 43 42 40 40 43 45 46 42 40 41 40 39 38 40 41 40
25 22 25 25 24 25 26 27 30 29 29 33 32 32 28 33 38 36 43 44 38 42 46 40 38 36 38 36 35 37 41 45 47 46 41 43 43 41 39 35 36 38 38
20 23 24 23 25 26 28 27 27 27 28 34 27 39 29 37 37 45 39 43 42 39 42 42 38 38 37 34 32 36 41 43 42 43 43 45 46 46 45 38 37 37 36
19 20 22 24 26 28 29 30 29 31 32 29 36 34 35 36 39 43 44 41 38 38 38 41 39 37 38 35 35 37 41 43 44 43 44 46 46 48 48 42 41 37 36
19 22 24 27 29 31 32 33 30 27 31 34 32 36 39 38 37 41 37 37 35 35 35 39 41 39 39 38 41 42 43 44 43 45 46 47 47 48 49 47 44 43 37
23 26 28 31 33 33 32 30 29 34 33 36 38 33 37 35 34 35 34 34 33 34 35 38 41 42 42 42 44 46 46 47 47 46 46 47 48 49 48 49 43 45 39
27 30 32 33 34 33 32 32 33 33 33 35 30 30 30 30 31 33 35 34 35 37 38 40 43 45 46 46 47 47 47 48 50 48 44 45 49 48 50 44 44 42 39
31 31 33 32 32 32 32 32 33 33 30 29 28 29 29 31 32 34 37 39 41 41 42 44 46 49 50 50 48 47 46 46 48 46 46 48 47 45 38 41 40 37 35
31 32 31 31 32 32 31 32 31 30 28 26 27 29 30 32 36 38 39 40 41 42 44 48 52 55 56 55 51 47 48 47 46 43 42 43 40 37 34 34 34 34 32
30 30 31 32 32 31 31 30 28 27 27 27 29 32 34 34 37 39 40 42 43 45 48 51 54 57 58 57 53 46 47 47 46 41 36 38 35 34 29 30 32 30 25
30 30 31 34 32 30 27 27 26 27 28 30 31 33 34 35 36 39 43 46 48 49 52 54 56 56 56 55 52 47 46 42 41 39 36 35 33 32 32 30 29 24 23
30 31 32 33 30 28 26 26 27 28 30 31 32 32 34 36 38 41 45 47 50 52 54 54 54 53 51 48 46 42 44 45 43 35 32 34 30 29 27 27 24 21 21

GFSMA_700_spd_060.txt.gz
Wind_Speed
42 40 29 22 16 12 9 5 3 1 3 5 5 5 5 5 5 5 3 4 5 6 7 9 11 12 8 13 17 13 13 12 13 15 15 15 15 17 19 22 23 24 25
38 32 26 18 18 12 7 4 2 3 4 3 5 8 7 8 8 6 6 7 8 9 11 11 13 12 15 19 16 15 16 17 18 18 18 18 21 22 24 24 25 26 26
29 31 22 22 15 12 9 6 4 4 4 5 7 8 10 10 10 9 9 9 12 14 14 16 17 19 18 17 16 16 17 19 20 22 23 26 26 27 28 29 29 27 27
33 29 27 24 17 12 10 10 5 4 4 6 9 11 11 11 12 13 13 14 15 17 20 22 22 18 19 19 17 16 18 21 24 26 29 30 31 31 31 31 31 31 32
34 33 24 21 16 15 13 9 7 7 6 7 10 10 12 14 16 16 16 18 18 20 22 25 23 22 23 21 16 18 21 24 26 30 32 33 34 35 34 34 35 36 38
32 37 25 22 19 16 13 11 10 11 10 12 12 13 14 15 19 20 19 22 22 24 25 28 25 24 26 21 20 21 24 25 27 32 34 35 36 35 36 38 40 41 41
37 30 24 20 18 16 15 14 13 13 14 17 17 17 19 20 21 23 24 26 27 27 30 26 23 27 30 25 26 25 28 28 31 34 36 36 35 37 40 43 43 42 42
35 29 24 24 21 19 19 16 16 15 17 20 23 23 25 27 25 24 27 28 30 30 30 30 28 30 27 25 27 30 29 33 37 36 34 35 38 42 44 44 43 44 45
33 28 25 25 22 20 18 18 18 17 19 22 25 27 30 31 28 27 33 32 31 34 30 32 34 33 32 29 31 31 32 39 39 35 33 38 43 45 44 44 44 45 47
28 27 26 25 22 19 17 18 19 19 20 23 26 29 32 32 33 33 32 32 36 34 31 35 36 41 39 31 31 32 38 40 38 36 39 42 44 44 42 43 44 46 47
25 27 26 24 20 19 17 20 20 20 23 25 26 31 37 32 33 35 46 37 37 27 27 30 37 42 41 37 35 38 39 40 38 40 42 41 39 39 40 43 45 47 48
22 24 23 22 21 19 18 19 20 22 25 28 27 34 36 31 29 33 33 38 34 35 30 33 37 42 41 39 41 42 43 42 42 43 41 38 37 39 41 45 46 47 46
19 17 18 20 21 21 22 21 19 24 27 27 29 28 35 26 36 31 32 40 37 35 33 35 38 39 39 40 40 43 43 44 46 45 41 37 37 39 41 44 44 45 44
18 19 22 24 25 28 25 21 18 23 24 28 28 32 26 35 29 32 31 35 33 35 40 38 39 36 39 38 40 42 44 46 46 44 43 43 42 41 41 41 40 40 40
23 23 24 27 23 24 28 18 23 25 27 29 27 28 31 29 28 30 29 30 38 42 46 39 36 38 38 38 40 43 44 45 44 44 45 46 44 40 41 42 41 40 40
19 23 28 29 27 26 21 23 25 28 28 28 30 28 32 34 31 36 34 36 41 43 47 48 41 35 35 37 38 42 43 43 44 45 47 46 45 44 43 43 44 41 40
26 25 26 22 26 23 22 26 28 29 29 30 27 32 34 35 34 36 37 42 39 44 49 48 43 39 38 37 36 38 40 42 43 45 46 48 47 46 44 45 46 45 41
22 27 25 24 22 22 25 28 30 30 32 32 32 29 31 38 41 38 39 41 41 42 46 47 43 39 38 36 38 40 41 42 44 45 46 49 49 48 45 48 48 45 44
22 23 23 22 24 26 28 31 33 33 33 36 31 33 42 39 37 43 42 39 40 42 41 43 44 42 40 37 38 40 42 44 46 46 46 46 47 49 48 47 47 44 41
18 19 22 24 27 30 33 35 36 32 33 28 33 35 34 41 43 37 41 38 37 38 39 40 41 42 42 41 42 44 46 46 49 48 47 46 48 50 48 46 48 39 42
20 21 25 28 31 34 35 35 32 32 28 35 33 35 35 35 33 35 35 34 35 36 38 40 42 44 44 45 46 48 51 51 53 52 47 46 46 43 44 44 40 37 40
24 26 29 32 33 34 33 31 31 31 32 32 32 32 32 32 31 32 33 35 35 37 39 42 45 47 48 50 52 55 57 57 57 51 46 46 45 45 40 42 36 35 38
27 31 30 32 32 32 31 30 30 31 31 30 29 28 31 31 31 31 33 34 35 37 42 46 49 50 52 54 57 59 60 60 59 52 47 47 42 42 36 32 31 35 34
31 31 32 32 30 29 29 29 29 29 29 29 29 30 30 32 32 34 34 35 36 38 42 44 47 49 52 54 56 57 58 58 54 52 43 45 40 36 30 31 32 33 34
30 30 30 29 29 29 29 29 28 29 30 30 30 30 31 33 33 34 35 38 39 41 43 45 48 50 51 53 54 55 53 52 50 46 42 41 40 34 32 30 32 29 29
30 30 29 29 30 29 29 29 30 30 31 31 31 31 31 32 32 34 37 40 42 43 45 47 48 49 50 51 50 50 49 46 44 43 37 37 37 37 32 30 26 26 29

GFSMA_700_spd_063.txt.gz
Wind_Speed
35 33 30 23 20 17 15 9 5 3 2 5 7 5 4 3 3 2 2 2 3 4 6 9 10 12 12 12 17 15 12 13 13 14 15 16 16 17 19 21 21 22 24
37 33 29 28 22 17 12 9 6 5 4 6 6 6 5 6 4 4 6 5 5 6 9 10 12 15 18 19 19 17 15 15 15 15 15 17 19 22 23 23 24 25 27
37 39 33 27 21 18 17 11 7 5 4 4 3 4 6 7 7 7 8 7 9 10 12 14 15 19 18 16 17 18 18 16 16 16 19 21 24 25 25 26 28 28 28
39 38 34 27 23 24 16 11 9 5 4 5 5 6 8 10 10 11 11 10 11 13 14 15 18 21 20 18 19 19 20 19 18 20 23 28 30 30 30 30 31 31 30
40 39 29 28 29 21 16 12 10 7 5 4 6 8 11 12 13 14 13 15 16 16 18 18 20 24 20 19 19 18 21 23 22 24 26 33 35 36 36 34 33 33 35
34 29 31 30 27 21 16 12 12 11 8 8 8 9 12 13 16 17 17 18 20 21 23 23 24 23 19 20 20 19 22 26 26 27 29 34 38 39 39 37 36 38 41
34 35 34 33 27 21 15 16 16 14 11 13 13 12 14 15 17 18 19 20 21 25 27 25 27 27 25 21 20 22 24 26 30 29 30 36 39 40 40 40 42 45 47
34 36 38 30 25 20 18 20 19 14 14 16 17 18 19 20 19 21 23 23 24 23 22 28 31 25 28 25 27 25 27 30 30 29 36 38 39 41 42 44 47 51 50
41 42 40 31 25 22 22 23 21 17 17 19 20 22 24 24 23 22 24 22 28 30 32 27 33 30 31 31 32 27 29 31 30 35 38 38 39 41 44 48 49 48 47
42 41 40 29 27 26 25 24 22 20 22 23 24 23 27 29 34 35 27 30 31 29 37 33 29 27 30 30 31 30 31 33 35 39 39 39 39 43 46 46 46 46 46
39 40 33 28 28 28 27 24 23 23 23 25 23 26 30 31 28 28 31 27 31 28 31 34 33 32 32 33 34 36 34 35 39 40 41 41 42 44 44 44 45 46 47
33 32 26 30 31 28 27 24 25 27 26 25 25 27 29 29 26 35 35 34 34 32 32 37 36 37 35 40 38 40 39 41 43 45 43 42 44 44 43 43 44 47 49
25 23 26 29 28 27 27 28 28 28 30 24 24 27 29 31 38 30 37 32 34 34 31 31 33 35 41 37 39 39 42 44 45 43 45 46 48 45 44 43 45 48 48
20 22 25 26 26 28 30 32 34 40 21 19 25 27 28 31 32 33 37 32 34 33 37 37 35 37 41 39 40 43 46 45 44 45 47 48 49 48 47 46 44 44 43
23 26 28 30 30 31 34 32 33 20 16 22 26 29 29 29 36 37 39 37 37 37 40 41 44 43 39 41 42 44 44 45 45 46 47 50 50 49 48 47 48 46 46
29 31 30 31 32 34 33 30 24 25 26 26 30 31 32 33 37 38 39 38 37 40 48 44 46 42 42 42 42 44 45 45 46 47 48 49 51 50 49 49 51 50 48
26 29 33 31 26 30 31 28 27 28 29 30 32 33 34 36 38 43 44 38 41 43 46 46 47 45 42 42 39 42 43 45 46 47 48 49 50 50 50 50 52 46 49
34 42 41 29 32 29 27 25 28 31 33 33 36 33 37 39 37 36 41 39 43 40 44 52 45 43 43 41 40 42 42 45 46 45 47 49 50 52 53 55 56 51 53
29 22 26 30 28 26 24 30 29 32 35 36 37 40 36 40 36 38 45 44 42 45 47 46 45 42 43 42 42 42 42 44 46 47 50 51 53 54 55 55 54 53 50
19 25 25 26 26 27 30 32 33 35 36 38 41 37 38 37 38 45 42 42 47 40 40 42 43 43 43 41 42 45 47 47 48 49 51 53 54 55 55 50 49 47 47
24 23 24 26 28 29 30 33 36 39 39 37 37 39 39 39 43 39 40 40 39 39 39 41 41 42 42 43 44 46 49 50 51 53 54 55 53 53 51 48 46 43 41
24 25 28 28 28 30 33 36 39 38 38 38 37 37 38 39 38 39 40 39 38 39 40 41 40 41 43 45 47 49 51 54 60 56 59 59 54 53 45 41 39 36 38
23 25 28 29 30 34 37 38 37 37 36 36 37 38 39 39 39 38 38 38 39 38 39 39 41 42 46 46 49 51 53 55 58 57 58 58 53 50 42 35 34 40 39
28 29 31 33 35 36 35 34 34 35 36 37 39 40 39 38 37 37 37 36 35 36 37 40 42 43 45 46 49 52 54 57 59 57 55 56 49 46 39 34 30 32 31
32 32 34 33 32 34 35 35 35 36 38 39 39 38 38 38 38 36 35 35 34 35 37 38 39 40 42 45 47 51 54 57 58 55 50 51 44 41 37 33 30 30 28
35 38 34 33 34 35 35 35 36 38 38 37 38 38 38 38 37 37 36 35 35 36 37 38 38 40 42 44 46 49 52 54 55 55 47 45 40 36 30 26 29 26 26

GFSMA_700_spd_066.txt.gz
Wind_Speed
32 29 27 23 19 17 17 12 8 6 6 6 8 9 8 6 4 3 3 3 2 1 2 5 6 8 9 12 12 13 13 14 14 13 13 11 11 13 16 18 19 20 21
32 30 27 24 20 16 14 13 9 4 6 6 8 8 7 5 4 2 3 4 4 3 4 5 7 8 10 11 11 13 14 15 15 14 14 13 13 16 18 21 22 23 24
33 31 30 26 20 15 12 11 7 9 6 6 8 9 8 6 5 5 5 5 6 7 9 9 11 12 13 15 15 16 16 15 16 17 18 18 19 20 22 23 25 27 28
32 31 30 25 23 21 18 10 11 9 7 7 9 8 7 6 7 7 8 8 9 11 13 13 15 18 18 18 17 17 17 16 19 20 22 23 24 25 26 27 28 29 30
36 33 30 27 32 24 19 16 13 10 7 7 7 6 7 7 8 8 10 11 13 14 16 17 18 19 20 19 18 21 19 20 20 23 24 27 29 28 30 31 33 33 33
39 39 33 34 36 24 24 19 13 12 11 9 7 7 6 8 9 9 12 14 16 17 18 20 22 21 20 21 22 22 19 21 24 25 25 30 31 30 34 36 38 39 38
45 40 42 30 28 27 23 18 17 15 14 13 12 11 10 10 9 10 13 15 17 18 17 19 18 22 23 25 25 27 26 29 30 30 28 32 30 33 37 39 41 42 42
45 39 28 29 28 27 24 20 18 16 17 17 15 16 15 15 13 13 15 16 17 20 18 23 24 28 25 28 27 30 31 31 31 32 33 33 32 36 40 41 43 43 45
41 39 34 34 29 31 27 22 19 21 21 21 20 20 20 17 17 18 20 24 24 20 23 25 22 25 28 30 31 31 32 31 30 32 35 35 36 39 41 43 44 46 47
38 36 36 32 32 33 26 24 24 24 23 24 25 23 23 24 26 29 24 26 22 21 23 28 28 24 29 31 32 35 33 36 31 30 36 37 39 40 42 44 46 47 48
29 30 33 35 40 34 27 25 26 25 27 28 28 27 27 25 28 30 24 27 30 32 28 32 30 27 31 34 34 40 38 40 30 38 33 39 42 43 42 43 45 47 47
27 33 36 37 36 30 29 26 27 28 30 31 31 31 32 30 30 32 33 32 34 30 35 28 32 31 33 32 40 39 40 36 39 36 39 41 42 44 47 47 48 48 47
27 28 32 36 37 35 33 30 31 33 33 33 35 37 36 25 30 32 32 33 43 33 35 30 29 31 34 36 41 37 44 40 41 41 41 42 43 45 47 50 50 50 49
27 28 28 30 31 35 36 32 35 36 35 37 32 33 17 26 29 31 31 36 34 42 38 39 36 30 32 37 42 47 40 43 43 42 41 43 45 47 48 43 39 51 51
24 27 30 32 35 38 35 35 36 35 35 43 22 17 26 27 29 31 34 36 38 43 41 41 35 37 38 41 39 44 42 42 44 43 42 43 46 48 48 49 50 46 39
28 31 32 35 37 36 36 36 36 41 37 26 26 29 30 30 33 33 32 38 43 41 46 44 42 40 40 36 40 41 39 43 43 43 43 45 46 48 49 51 52 51 44
30 33 38 37 35 40 39 37 40 38 38 35 36 32 32 35 35 37 36 43 40 44 43 42 44 44 39 43 40 39 39 41 42 42 43 44 46 48 49 51 53 55 54
39 40 39 38 36 42 35 37 37 24 28 33 34 34 36 36 40 37 44 37 47 50 42 48 47 42 43 39 39 39 40 41 42 43 44 45 47 48 49 52 55 57 58
46 38 41 44 43 41 35 34 30 31 31 32 34 35 35 39 42 36 46 42 48 42 45 46 43 48 40 38 40 42 43 42 42 44 45 47 48 49 51 54 56 57 58
37 24 22 25 34 25 32 36 34 30 31 33 35 38 39 41 43 42 41 43 38 44 39 43 46 43 41 40 43 45 43 43 45 43 43 46 47 50 52 53 55 56 55
26 31 26 23 24 34 33 35 33 33 34 37 39 39 42 41 46 41 44 37 44 43 44 44 42 41 42 43 44 44 46 47 47 45 46 50 49 54 53 52 52 50 47
27 29 28 27 27 29 31 33 36 35 37 39 42 43 43 40 42 41 41 42 43 42 44 42 42 43 42 43 44 44 46 49 49 47 50 52 54 57 54 52 48 46 41
25 26 30 30 32 34 35 37 37 38 39 42 40 41 43 41 42 42 42 43 43 43 43 43 42 42 42 42 43 46 43 45 48 50 53 58 56 57 53 50 46 43 39
26 28 29 30 30 33 36 36 38 40 40 39 42 43 41 42 42 43 44 44 44 44 44 43 42 41 40 42 43 43 45 49 50 53 54 61 58 57 53 48 43 39 36
28 29 32 34 34 36 37 39 40 38 39 41 42 41 42 42 43 45 45 44 44 43 43 40 41 41 41 42 43 45 47 51 54 55 53 58 55 54 50 45 38 33 29
30 33 36 37 39 39 40 40 38 38 39 40 41 42 44 45 46 45 44 43 42 40 39 40 41 40 41 41 44 46 48 51 53 56 52 55 52 51 50 39 28 22 23

GFSMA_700_spd_072.txt.gz
Wind_Speed
34 34 33 31 28 26 24 21 19 17 14 14 12 12 11 11 11 11 11 11 10 9 8 5 4 3 4 5 7 9 9 10 11 10 10 10 11 12 13 15 16 18 18
36 35 33 30 29 26 23 22 20 17 15 12 12 13 12 12 11 11 11 11 10 9 8 6 5 5 6 7 9 11 12 14 14 14 13 13 13 14 17 18 20 21 23
36 38 31 30 28 26 25 24 22 19 14 11 13 14 13 14 13 12 12 12 10 9 8 7 9 9 10 12 13 14 14 14 15 16 16 16 18 19 20 22 23 24 26
40 37 31 29 27 28 26 22 18 15 12 12 14 14 14 14 13 13 12 11 10 11 10 10 11 13 15 15 16 16 16 17 18 19 19 18 20 22 24 25 27 28 29
42 39 32 33 32 28 25 22 18 13 11 11 12 11 13 14 13 13 13 12 10 10 11 12 14 15 17 18 19 20 20 21 21 21 22 23 22 24 26 27 30 32 32
40 36 36 35 32 30 26 21 15 13 11 12 10 11 13 12 11 13 12 11 11 12 13 15 16 18 19 20 21 20 21 21 23 23 23 25 26 26 27 30 33 35 34
40 39 40 37 34 29 23 20 18 15 12 13 13 11 12 11 11 11 10 12 12 14 14 14 17 20 20 24 24 27 28 31 29 24 23 27 29 30 32 36 38 36 35
40 40 40 39 37 34 36 26 24 19 20 16 15 15 15 14 13 13 15 15 16 17 17 20 21 21 22 27 24 26 29 30 32 29 30 31 33 34 36 37 36 35 35
42 44 42 38 38 39 39 30 32 30 20 22 18 20 18 17 17 17 19 19 19 20 22 24 27 26 25 28 28 30 30 32 31 35 36 37 38 37 36 34 34 36 38
51 48 43 43 43 40 40 37 40 30 29 25 22 19 19 21 20 23 23 24 24 26 27 27 27 26 27 29 28 31 34 34 33 36 35 38 42 45 44 44 37 37 38
50 50 49 45 41 43 43 41 44 37 32 27 20 20 22 24 25 28 27 29 30 28 32 30 29 31 28 28 25 27 32 32 32 38 37 38 39 39 42 43 43 43 43
49 49 44 49 48 46 44 38 37 36 30 25 24 24 25 29 30 32 32 33 34 39 37 29 32 31 34 34 34 33 32 32 36 34 37 41 39 43 43 42 41 39 35
37 48 45 40 41 44 44 40 39 34 29 28 27 29 31 34 33 36 36 39 38 47 43 36 29 32 32 32 31 30 33 37 39 37 37 42 41 39 43 40 40 42 43
31 31 36 36 35 26 38 36 39 42 35 33 35 34 36 36 37 39 38 39 34 26 20 24 32 32 35 33 34 35 35 38 37 40 41 39 38 42 40 40 40 41 42
24 28 30 36 35 31 35 38 41 44 41 39 39 40 42 40 39 37 40 42 26 32 32 31 32 33 34 33 43 38 41 39 38 42 42 37 41 39 40 41 42 42 42
19 22 22 24 31 35 37 42 44 45 45 42 43 43 44 44 42 41 41 28 32 31 35 34 35 35 31 38 37 41 44 45 42 42 38 39 39 40 41 43 43 44 44
18 21 23 26 29 34 37 40 42 44 48 47 49 49 49 46 43 42 41 32 32 36 38 39 35 39 39 39 40 43 46 44 44 39 40 40 40 42 43 44 44 44 44
23 25 27 29 30 34 37 41 43 44 46 49 50 52 51 52 49 47 38 24 29 37 40 38 39 41 41 42 49 46 43 45 46 46 40 41 43 44 44 45 44 44 44
30 31 35 34 35 39 43 43 46 45 49 51 55 58 56 56 63 40 24 32 37 35 38 38 36 42 46 45 45 47 44 49 45 45 43 43 44 45 44 45 44 45 47
36 36 34 32 34 40 45 50 55 52 50 47 52 53 48 46 24 34 35 36 34 32 35 36 39 45 44 48 45 43 49 48 45 43 44 43 44 43 45 45 47 47 47
40 40 39 36 34 38 44 51 47 39 41 46 40 40 38 32 31 30 35 37 36 35 38 40 45 48 45 43 43 46 49 46 45 43 44 43 45 51 49 51 47 44 45
40 41 45 45 41 37 31 37 38 35 39 38 36 31 34 35 37 34 38 41 36 38 40 43 46 46 44 45 46 48 49 46 44 46 45 45 51 54 51 48 43 42 45
33 38 41 43 46 35 27 27 32 39 44 42 40 39 40 40 37 40 40 40 40 41 47 48 48 46 46 48 48 50 47 46 47 45 51 59 56 51 48 45 42 43 46
26 32 34 38 38 36 36 40 43 47 48 46 43 42 42 43 44 45 45 46 44 46 48 52 47 48 47 50 50 47 47 49 49 54 54 59 50 51 47 43 43 45 48
24 27 32 35 39 39 40 42 44 45 46 46 46 45 45 45 44 45 46 46 40 45 51 50 48 48 50 50 47 48 49 54 55 54 52 51 50 48 46 44 44 46 49
31 29 31 35 37 39 39 40 42 45 45 44 44 45 42 40 45 48 46 45 47 50 51 47 48 49 48 50 50 51 51 52 54 53 51 51 46 45 48 44 44 44 46

GFSMA_700_spd_075.txt.gz
Wind_Speed
38 32 31 31 30 28 26 24 21 18 18 17 16 15 12 12 12 13 13 13 13 13 11 10 8 6 3 3 3 5 7 9 10 11 12 12 11 11 12 13 15 16 18
42 35 32 32 30 28 25 23 21 20 19 17 15 14 14 13 13 12 13 14 13 12 11 9 8 6 5 6 6 7 9 11 12 13 14 14 15 15 15 17 18 20 21
41 34 35 30 30 28 27 25 22 22 20 18 16 14 14 14 12 12 13 14 14 13 12 10 9 9 9 10 10 12 14 14 16 15 15 15 17 17 18 19 19 21 24
33 34 35 30 29 30 29 26 24 23 21 18 16 14 15 15 14 13 14 14 14 14 13 13 12 12 12 13 14 15 16 17 18 18 18 18 19 20 20 20 21 23 25
35 34 34 32 30 28 28 25 25 21 19 15 15 14 15 16 15 15 16 15 14 15 14 14 14 15 16 16 17 16 18 19 19 20 22 24 23 21 22 24 25 26 27
38 38 35 34 34 29 28 27 26 24 19 16 15 13 15 15 15 16 16 15 15 14 15 16 16 17 17 18 19 20 20 20 22 22 22 22 22 23 25 29 30 30 32
46 42 37 38 31 33 28 30 28 23 20 16 12 12 14 12 13 14 15 15 15 15 16 18 18 17 16 17 19 22 23 24 25 23 22 24 24 25 28 30 31 31 33
39 42 42 43 35 33 33 32 27 24 21 16 13 15 14 15 14 14 14 14 16 17 18 17 20 22 25 24 22 24 24 25 25 27 29 29 31 32 30 32 33 33 34
47 50 49 47 41 37 38 33 31 27 24 21 22 19 19 18 16 17 17 18 19 19 19 21 23 23 27 28 29 26 27 28 30 30 31 34 34 33 34 33 34 33 32
37 48 49 46 44 44 42 39 39 34 35 30 32 28 24 20 15 15 18 20 22 23 24 27 28 30 30 30 29 30 29 29 30 32 32 33 35 37 35 37 39 37 35
34 46 50 47 48 47 45 44 40 40 37 36 34 32 28 25 22 22 23 26 28 27 27 28 32 34 33 37 34 30 30 29 34 31 31 34 36 35 34 38 41 39 40
43 44 49 50 49 50 49 47 42 42 46 41 35 32 30 26 26 25 25 25 28 31 33 33 38 39 41 43 31 30 31 31 30 28 32 36 36 36 39 39 39 38 41
38 37 49 53 51 49 49 46 48 47 47 45 39 35 30 29 29 29 28 27 31 34 36 38 36 42 48 42 27 30 33 34 34 34 33 35 37 36 39 41 39 40 39
36 25 31 40 52 44 48 43 40 43 44 37 34 38 35 34 33 32 32 32 36 36 40 39 38 27 24 28 33 29 38 34 35 32 35 36 37 39 43 40 40 39 39
28 32 28 34 37 41 40 38 38 43 43 40 41 42 38 38 37 36 37 38 39 41 43 37 33 31 32 31 31 33 33 35 38 37 39 38 38 40 38 39 40 40 40
15 21 25 28 34 36 41 37 40 41 42 42 46 46 42 41 41 41 41 42 44 44 46 40 33 34 32 34 36 36 35 41 39 42 42 41 38 41 41 40 40 41 42
16 15 18 22 24 27 36 38 39 38 40 42 45 48 46 45 45 46 47 48 47 45 50 52 45 39 30 35 40 41 42 41 43 45 44 42 42 44 43 42 41 43 43
20 22 21 23 24 24 26 33 38 39 43 46 46 47 47 48 50 51 52 53 54 55 54 44 38 44 35 43 43 40 43 45 44 47 46 41 46 45 44 42 43 44 44
26 26 27 28 28 28 29 31 33 37 41 44 45 47 49 49 50 51 55 62 63 58 58 53 35 36 43 40 46 44 43 46 46 47 46 46 49 46 44 44 44 45 46
32 32 33 33 33 33 35 36 39 41 44 47 46 50 48 48 52 58 59 60 59 42 29 34 40 36 45 43 42 46 48 48 46 45 49 49 48 45 44 44 44 44 51
40 38 37 38 39 39 40 39 40 41 47 48 48 54 53 52 48 46 42 30 29 31 36 34 42 42 45 43 45 46 51 46 46 47 49 50 48 47 45 46 46 50 52
40 44 44 43 43 45 44 43 40 39 42 46 50 51 42 44 47 43 38 34 36 40 45 37 42 44 45 50 48 48 47 47 46 48 50 48 46 47 45 51 51 52 46
33 36 39 42 44 44 44 46 43 43 38 43 40 41 40 46 48 44 44 42 40 45 46 43 40 47 50 48 45 44 49 47 46 47 49 50 47 48 50 50 52 46 44
24 23 27 32 36 39 41 42 43 46 44 42 39 41 43 47 48 49 44 45 43 45 53 48 51 59 48 37 39 47 49 47 49 47 44 52 51 51 51 52 47 43 39
31 29 27 27 29 33 37 36 38 44 49 49 48 48 50 51 52 47 47 44 43 54 50 52 51 40 39 43 43 48 48 50 50 49 46 51 51 52 50 50 45 40 39
38 37 35 33 31 30 31 35 38 40 43 44 45 47 48 50 50 49 50 47 49 54 55 52 46 44 43 42 44 49 52 50 50 49 48 51 50 47 51 46 42 40 41

GFSMA_700_spd_078.txt.gz
Wind_Speed
23 29 29 28 25 27 26 25 24 23 21 19 15 16 17 13 10 11 12 13 13 12 12 12 10 8 6 5 3 3 5 7 9 10 11 11 11 12 12 12 12 14 16
26 30 36 32 28 26 26 26 25 23 22 19 17 17 18 13 11 12 12 13 14 13 12 11 9 7 5 4 4 5 6 8 9 10 12 12 14 14 15 16 16 16 17
24 32 41 31 28 28 28 27 24 23 22 20 18 17 15 12 10 12 12 13 14 13 13 11 9 8 8 7 7 8 10 11 11 13 14 15 15 15 16 18 19 17 19
30 35 41 31 30 30 30 29 25 24 22 21 19 17 15 13 12 12 13 14 13 13 13 12 12 11 11 11 11 12 13 13 14 15 15 17 18 20 21 20 20 20 21
37 35 39 35 31 32 32 29 26 25 22 21 19 16 14 14 13 13 14 13 13 15 15 15 14 14 14 14 14 14 14 16 17 17 17 16 18 20 20 20 21 23 25
33 35 36 35 34 31 31 31 28 25 21 20 18 15 14 15 13 15 15 15 15 15 16 16 15 14 16 16 16 16 17 15 16 16 18 19 19 19 20 21 23 25 26
23 41 35 34 35 34 25 28 27 24 24 24 21 17 16 13 14 15 16 15 16 16 16 16 17 17 17 17 17 18 19 20 17 19 19 21 22 24 25 25 27 28 28
25 39 35 36 34 32 34 31 32 29 27 25 22 17 16 16 15 16 15 16 16 16 16 19 17 19 18 18 19 20 22 23 22 23 23 21 24 24 26 26 27 27 26
25 37 43 39 39 37 40 36 33 31 28 26 24 23 20 18 17 18 17 18 17 19 19 19 21 21 23 23 26 23 24 26 25 27 27 27 29 26 25 27 27 26 27
25 34 43 40 40 39 40 33 31 30 30 28 28 26 23 26 28 24 23 19 21 21 20 22 22 22 26 30 33 31 29 31 30 29 28 33 31 28 30 31 30 30 33
30 39 42 47 45 46 42 34 36 37 36 35 35 32 32 27 28 27 24 20 23 20 22 22 23 25 27 30 36 37 36 39 33 30 30 30 30 30 31 33 32 33 34
29 35 32 35 48 48 47 42 43 42 42 41 43 37 39 33 30 29 26 22 24 23 25 25 22 27 31 32 33 38 40 42 32 31 31 31 32 32 33 33 34 35 37
32 35 34 32 41 53 49 51 48 47 47 47 45 38 40 38 31 33 30 28 27 27 28 28 26 28 30 35 33 24 23 28 25 31 36 34 34 32 34 36 35 36 40
28 28 31 26 36 50 55 54 51 50 49 49 51 45 38 42 43 34 34 33 34 34 33 31 31 31 32 37 33 31 31 29 30 34 34 34 35 34 35 36 38 38 39
26 28 27 32 24 45 53 55 51 53 52 48 47 45 41 44 38 36 35 36 37 40 40 38 39 35 34 37 35 34 32 30 32 35 34 34 37 37 40 38 38 39 40
13 20 23 29 26 28 35 44 51 46 42 45 38 38 42 39 39 41 40 40 39 43 46 42 44 44 42 39 40 41 41 34 37 35 35 38 39 40 39 41 40 41 42
11 12 13 21 27 27 30 34 38 38 38 41 43 44 44 43 44 44 45 46 45 46 49 49 51 51 51 44 45 46 43 33 39 38 39 38 40 41 42 44 40 42 42
18 18 19 19 22 23 27 30 33 39 39 46 43 41 41 41 40 48 47 50 49 47 52 56 56 58 58 55 52 53 42 39 43 43 44 46 44 44 44 41 42 43 42
23 23 25 24 24 24 25 26 27 29 34 39 40 41 42 43 45 46 46 47 48 49 51 55 67 61 63 66 61 51 44 44 45 43 45 48 47 46 44 42 44 44 42
29 30 29 28 27 27 28 28 29 31 32 33 35 38 40 43 45 46 48 47 46 50 55 54 47 44 41 33 35 35 38 39 44 47 49 47 52 46 39 42 44 43 43
35 33 34 35 34 33 33 34 33 34 35 35 35 37 42 42 48 51 53 51 52 60 57 42 38 38 38 39 36 40 42 46 46 51 47 48 46 47 42 43 43 42 43
35 36 37 38 39 40 39 37 37 39 39 39 40 39 39 40 43 44 42 44 46 50 58 49 49 45 43 46 48 41 43 53 54 49 41 40 44 45 47 46 45 46 48
32 33 34 36 37 38 38 39 40 41 42 44 43 42 42 41 40 41 39 42 44 48 53 52 48 52 52 48 54 48 58 59 49 38 40 43 43 47 48 47 49 51 49
31 32 34 33 33 31 32 32 36 41 43 44 45 48 50 47 42 39 39 44 47 56 51 46 51 49 54 53 54 54 52 46 42 45 49 45 41 46 50 52 49 48 49
39 37 35 33 32 30 30 30 33 36 40 41 42 45 48 49 48 46 48 50 52 51 54 49 49 48 50 50 52 55 47 42 43 45 46 48 47 51 52 51 50 49 46
43 42 42 40 39 38 36 34 33 31 34 37 38 40 42 45 46 44 43 50 53 51 51 54 55 56 56 47 48 41 39 41 47 47 45 48 49 49 51 51 49 44 42

GFSMA_700_spd_081.txt.gz
Wind_Speed
23 16 22 31 29 30 31 31 27 27 26 22 20 16 13 11 11 11 12 13 13 13 13 12 12 10 9 8 6 6 4 3 3 4 7 8 9 9 11 12 13 14 14
32 21 13 29 29 30 32 31 29 27 25 23 21 18 13 12 13 13 13 13 13 13 12 12 11 9 8 7 5 4 4 4 6 8 9 11 12 13 13 14 15 16 16
30 25 19 37 30 31 28 26 29 28 25 22 23 19 14 11 12 13 12 13 13 13 13 12 11 9 8 6 5 5 6 7 8 10 11 12 14 14 14 14 17 18 18
29 22 24 34 33 34 32 31 27 25 22 23 22 19 14 13 13 12 13 13 13 13 14 13 11 10 9 8 8 8 10 9 11 12 13 13 13 14 15 17 18 18 19
26 32 26 35 38 32 33 32 27 25 25 25 22 19 16 12 13 12 12 13 14 15 15 15 13 13 12 11 11 11 11 13 14 14 14 15 15 16 16 16 17 19 20
26 23 33 40 43 37 34 30 28 27 26 24 23 19 17 13 12 12 14 14 15 15 16 15 14 14 14 14 13 12 13 13 13 15 15 16 15 17 18 20 20 22 23
33 30 35 35 41 35 33 31 29 29 28 26 23 22 19 16 15 14 17 18 18 17 16 16 15 16 15 14 12 13 14 16 18 20 19 20 20 21 20 20 22 22 23
31 32 28 31 41 40 37 34 32 30 28 25 24 21 22 21 18 19 18 17 17 18 18 18 17 15 15 14 13 15 14 17 20 20 20 24 24 23 22 24 24 22 24
25 29 20 40 39 33 37 32 26 29 28 31 31 27 27 24 19 19 17 18 18 17 16 17 15 15 15 14 17 18 19 21 21 24 25 26 30 26 27 23 24 25 26
20 24 21 40 42 40 34 39 30 28 30 31 29 30 28 26 23 22 21 21 22 21 21 19 18 17 17 19 19 20 21 26 28 30 29 28 28 30 31 27 27 27 28
20 21 25 39 41 38 37 34 37 40 37 30 33 29 29 28 26 27 29 26 28 26 24 20 19 20 20 21 23 22 25 26 26 29 32 36 33 29 30 31 32 32 32
22 19 22 24 41 42 42 39 37 36 41 36 36 35 33 32 29 30 31 27 26 23 28 27 24 23 22 23 25 25 30 29 25 23 26 30 30 30 31 31 27 28 30
24 20 15 21 33 42 42 41 37 38 37 40 44 42 39 39 40 40 37 32 32 28 27 25 25 22 24 26 26 28 31 31 29 24 25 29 29 31 31 33 33 33 33
21 21 21 19 28 33 40 45 41 41 42 46 45 41 40 43 44 40 35 34 33 37 35 33 29 30 29 29 29 31 33 33 34 32 31 30 32 33 32 33 34 34 35
18 20 24 21 21 28 41 39 46 48 51 49 41 42 45 46 47 45 39 38 44 41 39 34 36 35 36 36 35 38 38 35 35 36 35 39 34 33 35 36 35 37 36
8 14 19 21 24 29 35 39 44 50 51 51 49 49 49 46 45 40 43 39 40 40 45 38 37 37 40 42 41 44 44 41 38 38 47 48 40 38 36 36 36 37 38
9 9 11 15 18 21 29 32 32 39 49 51 54 50 46 48 42 37 41 41 42 44 49 48 44 41 47 48 48 49 46 54 48 48 46 43 46 39 40 41 40 41 42
13 14 14 15 16 18 23 28 27 26 33 40 44 50 49 44 44 46 46 45 48 46 51 56 48 44 50 50 51 53 55 46 55 52 42 47 43 41 38 41 46 45 45
17 18 19 19 20 21 22 23 27 29 31 31 36 40 40 41 46 43 41 41 41 42 48 51 45 46 50 48 51 50 47 42 50 45 43 40 44 45 45 45 47 48 45
24 23 23 24 25 25 26 26 27 29 30 29 29 30 28 32 33 37 41 43 43 48 49 49 53 53 53 51 53 46 38 40 37 34 35 37 44 49 51 50 48 36 38
30 30 30 30 30 30 30 31 31 30 31 32 32 32 32 32 33 31 36 41 44 45 51 48 54 54 54 49 49 47 44 42 41 40 45 48 47 53 56 51 38 41 39
35 35 36 36 35 35 33 33 34 35 35 35 35 36 36 36 37 37 37 42 38 39 50 46 47 49 48 48 50 41 49 52 49 47 56 54 53 56 52 41 46 45 42
41 38 37 36 34 34 33 33 35 37 38 39 38 38 40 40 39 39 40 43 44 41 45 45 45 46 45 48 50 46 45 46 43 51 55 55 59 57 48 46 46 46 46
43 41 39 37 37 33 32 34 35 38 40 39 40 40 42 41 42 44 45 46 47 48 47 43 48 51 55 52 47 43 54 55 49 55 56 51 51 48 48 47 48 48 48
35 40 43 41 40 38 37 35 36 38 41 41 41 41 41 41 40 41 45 50 53 54 56 54 55 54 53 57 51 48 48 51 54 51 50 48 44 41 45 47 50 48 47
41 39 39 46 45 43 41 38 39 43 44 44 43 45 44 46 50 47 46 47 52 54 53 48 48 54 59 57 51 44 52 46 44 42 38 38 41 44 48 49 47 46 47

GFSMA_700_spd_087.txt.gz
Wind_Speed
39 37 34 34 34 29 28 28 29 27 27 24 23 21 18 14 15 16 15 15 16 13 12 12 12 13 13 12 11 10 9 8 7 6 5 4 4 6 7 8 9 10 11
44 39 34 28 32 35 32 30 28 27 28 25 22 21 18 15 16 17 17 16 16 14 13 13 13 13 14 13 12 10 10 9 7 6 5 6 6 8 9 10 11 12 12
40 37 34 31 29 28 31 32 31 30 28 26 24 22 18 17 17 17 18 17 16 15 15 14 14 13 13 13 12 11 10 8 7 6 7 7 8 9 11 11 12 13 15
35 36 31 30 29 27 31 34 33 31 29 27 23 24 18 18 16 17 19 18 17 15 15 14 14 14 14 14 12 11 10 9 7 6 7 8 10 10 11 12 13 14 15
36 35 31 30 19 24 31 34 34 31 27 27 26 23 20 18 16 17 18 18 17 17 17 15 16 16 16 15 14 12 11 10 8 8 8 7 9 10 11 12 15 15 17
37 31 34 28 30 26 34 36 36 32 30 27 25 26 21 21 18 18 19 18 17 18 19 18 18 18 18 17 15 14 13 11 10 9 9 11 12 13 12 14 18 17 18
35 33 31 30 32 32 33 35 36 32 32 31 30 29 28 24 21 20 21 19 18 18 18 18 18 19 19 19 16 15 14 13 12 11 11 11 14 15 15 19 19 19 21
31 31 31 33 31 34 34 34 36 36 34 32 34 30 29 27 26 25 23 20 17 21 20 20 20 20 21 20 18 17 17 16 14 14 14 15 17 17 20 22 22 23 24
29 28 33 31 32 37 36 36 36 36 34 35 30 29 31 29 26 27 19 18 22 21 21 22 22 21 22 21 20 19 19 18 18 18 19 19 20 23 25 24 24 23 25
27 30 34 26 32 29 31 40 42 35 37 35 36 35 30 33 30 28 29 24 24 24 23 23 23 23 23 22 20 20 21 22 21 21 21 22 23 24 26 23 25 29 30
30 29 34 31 32 31 28 39 43 43 37 38 34 33 35 35 31 28 35 30 27 26 22 22 21 20 23 22 23 23 23 24 24 24 23 24 26 26 27 25 24 30 32
35 32 24 26 25 28 21 33 36 36 36 35 32 35 30 30 29 32 38 31 26 29 26 23 25 23 25 27 27 26 24 26 26 26 26 27 26 27 28 28 29 32 31
27 30 28 29 27 30 20 31 35 38 39 35 32 34 31 39 31 31 28 29 28 30 33 33 26 27 29 31 33 28 27 27 28 27 27 27 27 28 28 31 34 34 37
22 27 29 29 25 22 27 30 43 38 41 43 35 44 41 37 34 34 34 36 33 34 36 37 35 26 26 28 32 38 37 33 31 32 34 35 36 34 33 34 37 38 39
18 17 21 24 24 23 29 26 36 36 42 44 42 29 33 34 38 33 35 36 38 43 42 40 42 39 34 33 30 34 38 36 38 38 40 40 38 39 38 38 42 43 48
16 26 29 27 28 21 24 25 31 36 40 41 38 36 40 42 43 41 42 40 42 46 50 50 42 34 34 36 33 38 34 39 44 41 43 42 43 46 44 42 46 48 50
9 10 17 29 32 32 30 28 30 30 36 39 39 42 42 46 49 49 45 45 47 48 55 53 42 39 33 37 38 35 38 41 44 44 47 50 48 50 46 47 48 38 46
10 10 12 13 16 22 26 29 33 34 35 35 39 42 45 48 46 47 46 49 51 50 45 43 39 41 46 40 41 42 44 51 52 49 49 47 46 45 50 49 48 38 43
15 15 15 16 17 19 20 22 25 29 32 34 34 35 38 43 41 41 43 44 46 48 50 51 49 48 45 46 48 50 51 47 48 48 51 53 45 50 45 46 45 44 46
22 21 22 22 22 22 24 25 27 28 29 31 32 34 35 36 37 39 41 41 45 48 50 54 52 47 50 50 50 53 51 47 47 47 49 51 53 49 50 45 43 46 47
28 28 28 28 29 29 30 30 31 31 32 34 35 35 37 38 38 39 43 40 43 46 48 53 57 56 56 56 51 50 51 44 50 47 49 48 46 51 48 45 46 44 50
32 33 33 32 34 35 35 36 36 38 38 39 39 39 40 41 40 41 44 43 46 48 48 50 53 56 55 54 53 49 49 51 49 48 50 48 48 45 49 47 50 47 53
26 27 27 26 29 31 35 38 39 42 44 45 44 44 45 45 44 45 46 48 48 50 52 51 56 56 57 55 56 58 57 54 55 57 51 55 50 50 51 57 53 52 56
30 30 30 30 30 31 28 28 29 35 42 45 46 48 50 50 50 50 50 52 52 53 54 56 58 59 60 60 60 60 59 57 58 59 59 61 62 65 64 58 61 59 53
35 37 39 40 38 37 37 38 38 35 36 35 41 44 45 48 51 53 55 55 56 56 56 57 59 60 59 59 60 60 62 61 60 62 65 70 64 66 64 60 61 58 56
37 39 40 43 43 45 48 49 53 55 58 50 44 39 41 42 44 46 53 55 58 59 55 60 60 62 61 61 62 60 59 74 68 74 76 68 71 71 65 61 53 50 50

GFSMA_700_spd_090.txt.gz
Wind_Speed
30 26 27 33 39 33 29 27 25 26 24 27 24 22 19 17 17 15 14 14 13 13 12 11 13 13 13 13 13 11 10 10 9 8 6 6 4 4 4 6 7 8 9
33 41 36 36 41 35 32 26 22 25 27 28 25 23 21 19 15 15 14 14 14 14 13 14 14 14 14 13 13 11 11 11 10 8 7 5 5 5 6 7 8 9 9
27 29 31 34 37 32 29 24 26 27 28 26 25 22 21 20 16 15 14 16 15 14 15 15 14 14 14 13 13 12 12 11 11 9 8 6 6 6 7 8 8 8 10
25 30 33 37 37 32 30 28 28 28 26 24 24 23 19 18 16 12 14 17 16 16 16 15 15 14 14 14 14 13 12 12 11 11 9 8 8 8 8 7 9 9 11
27 31 38 37 35 34 31 26 27 27 26 26 24 24 20 17 15 13 16 18 18 19 18 16 16 15 15 15 14 14 14 14 13 12 11 9 8 7 8 10 12 11 12
37 36 34 32 29 30 32 30 29 26 24 24 24 25 23 20 18 16 18 19 20 20 19 18 16 16 16 16 15 15 15 15 14 14 12 11 11 12 10 12 14 15 14
29 32 35 33 32 30 27 28 29 30 31 31 32 29 28 22 26 23 21 20 20 19 20 19 17 18 18 18 18 17 17 17 16 16 15 14 14 13 12 15 17 17 16
27 32 36 36 36 34 32 34 34 34 33 30 34 29 29 28 26 24 22 22 22 21 18 17 17 18 20 20 20 20 20 20 19 18 17 16 16 16 16 20 21 22 21
18 37 28 33 26 32 36 34 34 34 32 32 32 32 32 29 24 24 24 24 21 18 15 16 20 20 22 22 22 22 22 21 21 20 20 20 21 20 22 23 23 22 20
30 24 32 31 29 35 36 35 33 32 32 33 33 33 29 27 26 24 26 25 22 26 26 23 20 22 24 24 23 23 23 23 23 23 24 24 23 23 25 23 25 27 24
22 24 25 32 30 28 24 34 34 38 34 34 33 30 31 30 29 26 24 25 28 35 25 26 22 25 25 26 24 24 25 26 26 27 27 28 26 26 25 25 25 26 27
22 22 29 26 27 28 24 19 20 34 39 36 33 34 38 33 26 31 33 28 26 37 38 31 24 28 24 26 25 26 26 27 28 29 30 30 29 28 28 27 27 26 27
18 27 24 26 26 30 18 27 18 20 33 44 48 35 32 33 27 27 29 32 37 35 39 32 26 33 32 31 30 29 28 30 31 31 32 32 32 32 30 31 32 33 33
12 22 25 26 26 22 22 21 18 18 28 29 40 38 35 34 35 37 34 38 38 40 37 30 30 35 38 33 26 25 31 41 41 35 35 37 35 36 37 38 39 40 40
13 17 21 24 21 21 22 22 22 22 27 33 31 40 39 41 32 40 44 45 43 37 38 33 32 34 36 41 36 36 32 28 33 42 45 44 44 43 43 45 45 45 41
11 16 20 23 23 25 22 21 24 27 26 34 37 36 42 44 46 44 35 38 35 39 40 35 35 40 41 43 41 41 35 32 31 35 32 43 47 46 48 47 49 51 51
8 13 21 22 23 26 25 25 25 25 27 30 36 42 41 38 45 36 42 40 39 47 47 39 38 39 44 48 51 36 35 38 39 38 37 37 41 47 48 50 57 50 51
9 10 12 16 22 30 31 32 30 28 31 34 33 35 36 36 38 39 39 42 45 44 45 47 45 50 48 44 39 38 40 45 39 41 44 44 46 46 51 51 51 52 51
14 14 14 14 15 16 21 24 29 30 30 28 30 32 32 32 37 38 42 43 44 46 46 47 49 45 46 46 47 45 49 48 46 47 51 48 52 52 54 54 53 56 55
20 19 18 19 19 20 21 22 24 27 28 28 30 32 34 36 37 39 41 42 47 48 47 51 52 49 50 52 53 55 55 53 56 52 52 50 48 49 50 50 56 58 56
24 24 24 24 24 24 24 25 26 28 31 32 33 34 36 37 37 40 44 43 46 49 50 52 54 51 49 48 49 47 52 48 51 48 48 45 44 48 50 53 55 56 49
17 24 28 29 29 29 29 31 32 34 35 36 37 37 38 39 39 42 45 45 49 52 52 53 55 56 53 51 50 53 52 53 55 49 52 53 50 50 52 51 54 54 50
37 27 25 24 26 25 27 30 31 34 37 39 39 41 44 45 44 45 46 48 50 51 54 54 58 58 58 56 55 56 58 57 58 57 57 58 58 57 58 57 57 59 63
31 32 30 28 30 29 31 31 31 32 38 40 42 42 40 42 47 51 53 55 55 55 56 56 60 61 62 62 61 60 60 59 60 60 60 61 61 59 60 61 61 60 68
28 29 30 31 34 38 40 42 41 42 42 42 42 40 43 46 46 45 45 52 56 59 59 59 62 64 65 63 62 61 62 59 61 62 63 64 65 64 63 67 73 68 74
31 33 35 36 36 38 41 42 42 47 49 50 51 51 50 51 49 53 50 51 49 50 54 54 55 64 65 66 62 61 63 63 64 68 71 70 72 72 71 74 76 72 68

GFSMA_700_spd_093.txt.gz
Wind_Speed
27 23 23 26 25 20 27 35 30 27 24 24 24 23 18 16 17 16 16 15 16 14 13 12 12 14 14 15 14 12 11 10 9 9 8 7 7 7 6 6 7 8 8
27 26 26 25 25 22 32 33 28 25 27 25 24 22 21 18 18 17 18 17 16 13 13 13 14 14 15 15 14 13 12 10 10 9 8 8 8 8 8 8 8 8 8
27 32 35 30 28 24 29 34 29 28 30 29 26 21 20 19 16 16 16 16 17 14 14 14 15 16 16 16 15 14 13 12 12 11 10 10 9 9 10 10 9 7 7
28 35 40 24 35 33 28 36 30 30 31 28 25 25 22 19 18 17 16 17 16 15 15 17 16 16 16 17 16 15 14 13 14 13 12 11 11 11 11 10 8 8 8
27 29 33 27 38 33 35 34 30 31 31 29 27 25 22 20 18 16 16 18 18 17 18 19 18 16 17 17 16 16 15 15 14 14 14 14 13 12 12 10 10 10 11
20 26 33 29 36 36 34 33 31 28 27 27 28 27 25 21 20 18 17 18 17 17 18 20 19 18 18 18 17 16 16 15 15 16 16 16 15 14 15 14 12 12 13
14 24 29 33 30 37 33 30 28 29 30 30 27 29 26 25 22 19 17 17 16 17 20 21 20 20 19 19 18 18 18 18 18 18 18 18 18 17 16 16 16 16 15
19 23 34 39 35 36 34 31 28 30 29 27 31 28 28 27 25 22 19 16 15 19 23 22 20 19 18 19 19 20 21 21 21 20 21 21 20 19 18 18 19 20 19
29 26 33 34 35 33 28 33 33 31 30 32 30 30 31 28 23 22 19 18 21 23 24 21 20 18 16 21 23 23 23 23 23 23 23 23 22 22 23 22 22 23 21
24 30 27 36 37 34 31 30 29 29 32 32 30 29 30 31 26 25 23 20 19 22 23 21 21 22 20 24 24 24 23 25 25 25 25 25 26 26 26 26 25 26 24
27 22 34 34 30 32 28 27 34 35 32 33 32 30 31 30 29 27 22 22 24 21 24 26 32 23 26 30 24 25 25 26 26 27 28 29 30 30 28 28 28 27 28
24 28 31 31 26 29 26 25 31 27 29 35 35 33 33 33 32 28 33 28 34 22 26 31 35 35 34 35 27 29 27 28 29 30 31 32 33 33 33 32 32 31 31
21 24 27 30 24 28 23 19 23 17 17 19 37 35 35 36 37 35 39 38 35 26 31 33 36 39 43 41 32 32 31 33 33 33 33 35 36 37 36 36 37 36 36
20 25 22 25 27 28 17 24 17 18 16 14 31 39 40 43 43 37 30 25 31 33 39 39 42 41 37 31 33 33 37 38 37 35 37 39 42 41 40 40 40 41 41
14 21 21 15 16 22 17 18 20 16 17 13 16 22 32 37 39 33 32 37 40 39 44 45 45 41 39 36 34 37 38 34 30 33 39 39 51 45 42 44 44 44 45
10 11 18 19 22 20 20 21 27 19 20 21 16 24 28 22 34 38 38 40 48 42 45 42 39 39 36 35 36 41 43 41 37 38 39 33 33 43 41 47 53 51 53
9 8 11 18 19 21 23 23 22 21 18 21 22 22 30 33 32 36 38 46 45 47 49 39 36 34 36 38 38 41 39 43 47 47 44 40 42 41 44 40 40 48 51
10 11 13 15 17 19 22 25 23 20 21 23 24 26 26 30 37 43 42 36 40 38 37 39 40 41 41 37 40 45 43 49 51 46 45 44 46 44 48 46 47 45 47
13 12 12 12 14 19 22 25 26 26 26 28 28 30 31 33 36 36 38 39 38 39 42 44 45 42 44 45 47 46 45 47 47 49 47 48 50 50 53 53 59 52 55
17 15 15 14 14 15 16 17 19 22 25 27 29 30 31 31 32 34 36 37 38 41 42 46 44 43 46 45 49 46 47 47 52 54 54 56 57 59 56 58 61 60 53
18 17 17 18 19 19 20 20 21 23 25 26 28 29 30 32 33 35 39 38 42 45 46 49 52 49 47 48 51 51 55 49 51 51 51 51 50 50 54 55 55 55 56
17 18 16 16 20 22 24 26 27 27 29 30 31 32 33 34 34 37 40 40 43 46 47 49 51 53 53 52 53 55 56 56 57 53 54 55 53 54 53 53 53 53 56
26 27 27 27 23 26 26 28 29 31 32 33 33 34 35 36 37 40 42 44 45 46 47 49 55 57 58 55 55 56 58 59 60 57 58 62 62 61 60 60 58 57 57
27 26 27 29 28 31 32 30 27 26 29 30 30 30 32 34 35 36 37 36 34 36 40 40 45 49 53 59 63 63 62 62 62 61 62 63 64 65 67 66 66 64 63
26 27 29 31 35 40 39 38 37 38 37 40 42 44 53 51 46 44 44 45 49 49 53 54 52 53 54 53 53 56 58 59 62 66 68 66 66 67 67 75 71 71 69
24 26 26 28 31 33 34 35 36 39 42 45 45 48 51 52 53 53 54 54 56 54 55 56 56 58 64 64 67 60 60 57 59 65 68 72 71 73 74 73 74 76 75

GFSMA_700_spd_096.txt.gz
Wind_Speed
24 27 27 27 26 24 22 12 30 29 27 25 26 24 22 18 18 19 17 17 16 16 14 14 12 12 13 15 15 14 13 11 11 11 10 10 10 10 9 8 9 9 9
26 30 30 29 27 25 21 17 27 29 27 26 27 26 24 20 18 17 16 18 17 16 14 14 13 14 15 16 16 14 13 13 12 11 12 11 11 10 11 10 11 11 10
27 31 29 31 28 25 22 19 39 32 29 26 26 24 21 18 18 19 19 17 16 17 16 16 15 15 16 17 16 16 15 14 13 13 13 13 12 12 12 12 12 12 11
29 30 31 31 30 24 25 22 46 34 30 28 27 25 24 21 19 20 20 19 18 18 17 18 16 18 18 18 18 18 17 16 16 15 15 14 14 14 13 14 13 13 11
27 32 35 33 35 35 31 25 42 33 30 31 29 26 26 24 22 20 20 19 19 18 18 19 18 20 20 21 21 20 19 18 18 17 16 15 15 15 15 15 14 14 13
26 33 34 35 41 30 36 33 34 35 32 32 32 30 29 24 21 23 20 20 20 19 20 20 20 21 20 21 22 21 20 20 19 18 17 17 17 17 16 15 16 17 16
25 30 30 31 34 28 39 35 44 39 36 35 33 31 30 26 26 24 20 19 21 21 22 22 20 21 22 22 21 20 20 20 19 19 19 20 19 19 19 19 19 18 18
19 20 27 27 41 33 37 39 41 38 38 36 34 30 31 30 29 23 21 19 19 20 22 22 20 21 21 21 20 20 20 21 22 22 22 22 22 22 22 21 20 21 20
15 19 18 26 31 30 37 37 37 38 36 36 32 33 34 33 27 26 23 20 20 20 20 20 20 20 21 22 21 20 18 23 25 25 24 25 25 26 25 24 24 24 24
13 16 21 26 27 36 36 33 34 33 31 31 34 34 31 27 24 25 23 22 19 21 21 21 21 21 24 25 22 21 26 27 28 28 28 28 27 28 27 28 29 28 28
19 15 23 31 34 37 35 34 34 34 31 32 30 34 32 28 27 27 22 25 26 22 21 18 21 24 25 25 26 23 24 25 28 29 29 29 29 30 31 31 31 31 31
18 24 29 26 32 34 35 33 32 33 37 39 34 30 32 30 26 27 28 29 25 24 25 22 22 27 31 31 33 32 34 35 33 30 30 31 32 33 34 35 35 35 35
16 31 30 24 37 36 35 33 29 27 33 31 25 35 38 35 30 32 32 26 31 29 32 34 35 35 38 39 39 41 46 44 42 43 39 37 37 37 37 39 39 39 40
13 25 28 24 28 30 21 26 25 22 21 20 17 26 35 37 36 36 37 39 38 36 36 42 43 36 36 38 39 42 42 44 35 36 40 40 40 40 41 42 43 44 45
14 23 28 24 36 31 26 24 22 25 18 24 16 20 34 38 39 38 39 43 43 43 41 37 37 38 39 42 39 40 41 37 37 38 41 43 46 47 46 50 51 49 49
15 19 26 24 29 23 31 23 19 27 22 22 18 18 26 29 35 42 41 41 38 38 38 37 33 40 40 38 40 45 43 38 44 44 42 45 37 37 43 44 40 41 51
13 17 22 29 26 22 25 26 26 23 29 20 23 23 22 22 29 26 29 33 38 42 42 42 45 43 50 44 36 33 34 39 42 48 48 52 51 46 46 48 48 46 46
12 12 12 16 26 25 29 27 25 24 23 21 22 20 21 21 24 25 27 28 31 40 42 42 38 40 42 35 34 37 38 38 41 45 48 47 50 50 52 50 47 49 50
14 13 11 11 11 14 17 18 21 23 22 21 19 22 21 22 26 26 26 30 33 37 39 41 40 38 37 35 37 39 40 41 47 49 50 51 50 49 51 50 51 54 56
18 15 14 13 12 13 15 18 19 21 22 22 24 24 23 25 25 27 27 28 32 34 36 38 37 37 38 34 39 39 40 41 40 40 43 45 46 50 50 53 55 58 61
22 20 18 17 17 19 21 20 20 21 21 21 21 23 24 26 27 29 30 30 34 37 39 41 43 42 41 44 46 46 47 45 48 45 49 50 49 48 50 51 54 56 56
25 24 23 22 22 25 22 22 23 24 25 25 26 27 28 30 31 33 35 36 38 40 40 42 45 48 48 45 44 46 47 52 56 52 54 57 53 53 55 58 59 57 54
26 26 23 25 27 28 26 26 26 26 28 28 29 30 31 32 33 35 37 39 40 41 43 43 46 46 46 45 48 47 51 57 58 55 55 57 58 60 63 62 63 61 60
22 26 26 28 28 29 28 26 25 26 27 28 31 31 30 30 33 34 35 35 34 36 41 44 45 45 45 48 49 51 53 57 53 54 56 61 63 65 66 66 68 68 67
28 29 33 33 31 32 31 30 30 30 33 35 36 37 38 40 42 44 44 46 47 49 51 49 50 53 56 56 55 54 57 57 59 56 54 58 55 61 67 70 69 70 70
24 27 28 28 28 27 26 28 29 30 34 36 38 41 43 45 47 49 49 50 50 51 55 57 58 55 57 59 61 62 61 64 63 67 66 65 63 62 59 60 62 60 60

GFSMA_700_spd_099.txt.gz
Wind_Speed
22 24 26 27 25 25 24 21 20 17 20 24 23 25 24 22 22 22 20 20 19 17 16 14 13 12 13 13 14 14 13 12 11 12 12 12 11 11 10 9 9 9 10
23 25 26 28 26 26 24 22 21 12 26 28 27 26 25 27 21 21 19 19 19 19 17 16 14 13 14 15 15 15 15 13 13 12 12 12 12 12 11 11 11 12 13
23 26 26 30 27 27 26 26 24 17 35 29 28 27 29 25 23 21 19 20 19 18 17 16 16 16 17 17 18 18 17 15 15 13 13 13 13 13 13 13 13 14 14
25 27 28 29 29 29 29 25 28 27 30 28 27 28 28 25 23 21 20 19 18 19 18 17 17 17 19 19 20 19 19 18 16 15 16 15 15 15 14 15 14 14 14
27 30 33 31 30 31 30 27 33 30 31 29 26 26 28 26 24 22 21 19 20 18 18 18 18 19 21 21 20 20 20 19 17 17 18 17 17 16 16 16 15 15 15
26 30 31 32 31 33 33 31 32 31 38 31 28 28 28 29 22 23 19 19 20 19 20 19 19 20 22 21 20 21 21 20 19 19 19 19 19 18 17 17 17 15 16
20 23 26 31 34 38 35 36 27 38 39 33 33 30 29 25 24 22 20 21 20 20 21 22 22 22 22 20 21 21 21 20 19 19 20 20 21 20 20 19 19 18 19
21 26 30 32 38 34 41 36 34 40 40 35 35 35 32 29 30 26 23 21 21 22 23 23 22 22 22 22 22 21 21 20 19 19 19 21 22 23 23 23 22 21 21
21 24 26 24 32 33 34 35 38 38 39 39 38 35 34 33 27 28 25 23 23 22 21 21 21 21 22 22 22 22 21 20 20 19 20 23 24 25 25 26 26 25 25
21 21 22 24 30 37 37 31 36 38 43 43 37 34 32 29 32 28 27 25 24 21 19 21 21 22 22 22 22 22 22 22 21 22 30 30 28 28 29 28 28 29 29
19 16 16 18 22 26 29 35 38 34 43 37 35 33 30 32 22 21 25 26 24 22 21 23 25 23 22 22 22 24 22 24 29 27 27 28 29 29 30 30 30 33 32
18 14 16 17 28 22 30 35 39 36 34 36 32 33 34 31 29 26 24 21 26 23 24 25 24 23 22 24 24 26 31 31 27 35 43 39 35 36 33 34 35 34 35
17 14 16 15 20 19 29 34 34 36 37 33 35 35 34 33 34 34 37 27 27 30 29 27 28 27 27 29 33 39 40 39 39 40 41 42 42 41 44 41 40 40 39
16 15 14 21 23 29 33 37 35 32 32 36 40 42 32 36 39 29 26 27 23 26 30 33 32 33 36 39 39 40 39 40 44 42 42 39 43 44 43 41 42 43 42
15 16 15 24 24 20 35 34 35 30 31 30 29 27 23 25 31 31 31 34 34 37 37 30 30 36 34 37 38 39 41 40 40 41 39 36 35 38 39 41 42 43 45
14 17 18 21 26 26 25 28 20 20 24 21 20 20 20 23 31 33 37 32 40 37 36 32 32 36 32 34 36 39 39 39 36 38 40 37 40 43 43 45 44 41 41
14 15 17 21 24 23 31 32 30 19 24 25 23 26 23 20 25 29 35 40 38 38 38 33 37 36 34 27 32 37 42 39 39 36 32 37 39 40 43 45 48 50 49
13 13 14 20 24 25 28 33 32 25 21 27 24 27 25 20 23 26 28 26 27 29 35 33 29 30 35 34 34 37 36 38 39 40 40 38 38 40 43 47 51 49 48
16 15 14 14 18 26 26 24 24 26 24 22 24 23 22 25 25 22 24 27 29 30 28 31 29 28 27 29 32 33 33 33 35 35 35 35 34 37 42 46 49 51 52
20 18 16 15 16 21 22 21 25 27 26 25 24 24 22 24 27 24 25 26 27 28 29 30 29 30 30 30 35 36 36 36 38 39 41 40 40 40 42 45 48 50 52
24 22 21 22 22 24 23 23 23 23 24 25 26 27 26 26 28 26 27 29 26 27 33 35 36 35 34 35 37 38 42 41 43 43 44 43 43 45 50 52 53 51 50
30 29 27 27 27 23 21 20 20 20 21 23 24 26 26 26 27 28 29 28 29 32 36 37 39 39 39 40 40 44 45 44 43 42 48 49 49 50 55 60 58 56 56
32 31 30 30 29 25 24 23 23 24 26 28 29 28 27 30 29 29 29 30 30 33 37 38 42 43 44 47 49 49 44 43 39 42 47 53 54 56 55 54 57 56 53
32 33 32 31 29 26 25 27 27 26 27 28 28 29 30 31 32 33 33 34 36 36 36 41 46 45 45 47 48 43 46 48 53 52 54 57 54 57 52 59 58 56 60
34 28 29 27 29 28 27 26 27 28 30 33 34 34 36 36 37 37 37 37 41 42 44 44 44 50 52 53 53 54 57 57 60 56 57 62 59 57 61 62 63 61 59
25 25 32 37 34 34 31 34 34 34 35 36 37 36 37 38 39 40 42 44 45 47 47 47 50 53 55 57 56 56 56 56 57 61 60 53 59 55 54 56 56 57 57

GFSMA_700_spd_102.txt.gz
Wind_Speed
17 20 22 23 22 22 23 21 17 18 16 14 22 28 21 22 26 24 18 19 18 18 17 16 15 14 13 13 13 14 13 11 11 11 11 12 13 12 12 11 10 9 9
19 20 23 25 24 23 25 22 19 18 13 15 28 28 26 24 23 28 22 20 18 18 18 17 16 15 14 15 15 16 15 13 12 12 12 12 12 12 12 11 11 10 10
21 23 24 27 26 26 26 23 22 21 22 20 29 28 31 32 30 28 21 20 19 19 19 19 19 16 16 16 17 18 17 15 14 13 13 13 13 12 13 12 12 12 12
21 23 26 27 27 29 27 26 25 22 23 24 30 31 33 31 26 27 20 20 19 18 19 20 17 17 17 17 17 18 17 16 15 14 13 13 13 13 14 14 14 14 14
22 24 27 28 28 33 25 26 26 25 23 26 31 32 30 29 26 27 22 19 18 18 19 18 17 17 17 17 18 18 18 17 15 15 15 14 15 15 16 16 16 15 16
24 26 29 30 28 31 29 28 28 29 26 27 29 25 29 28 26 27 23 21 20 21 19 19 19 18 17 17 18 18 18 18 17 17 17 17 17 17 17 17 17 17 17
25 28 27 25 26 28 29 30 29 29 26 31 33 29 26 29 26 27 23 21 21 20 20 20 20 19 19 19 18 19 20 20 18 18 18 18 18 18 18 18 19 19 19
27 29 25 24 26 28 31 34 35 35 35 34 37 36 31 25 27 25 23 22 19 19 19 19 19 20 21 20 19 20 21 20 19 19 18 18 17 17 18 19 20 21 22
28 28 26 25 29 31 32 36 35 38 33 40 38 38 36 31 26 28 26 22 22 22 20 18 20 21 21 20 20 20 20 20 20 20 19 19 18 16 20 23 23 24 24
28 27 26 28 26 27 26 37 43 40 34 44 42 35 31 28 25 24 25 24 26 23 20 20 17 19 20 20 18 19 20 19 21 24 21 19 19 24 25 26 26 27 27
28 26 26 25 22 25 27 30 37 40 38 46 42 36 31 30 28 27 26 26 27 24 21 20 19 19 20 21 20 18 20 20 24 24 23 24 26 19 20 29 30 31 30
27 24 24 21 17 22 24 28 34 33 35 44 36 40 32 26 27 27 27 25 25 25 24 24 22 21 21 22 23 21 22 22 21 27 33 34 31 38 40 35 32 35 35
24 23 20 16 15 20 23 19 36 33 35 38 39 39 28 28 28 27 23 22 19 19 23 25 24 23 24 23 23 23 23 25 27 31 34 37 40 38 40 40 37 34 39
22 23 20 12 9 17 18 19 24 34 35 37 37 33 33 35 34 33 31 30 27 33 26 25 21 26 24 23 24 26 29 32 35 35 34 36 37 39 40 36 37 39 40
22 22 18 12 10 16 20 26 26 35 36 35 34 34 33 33 39 38 39 41 37 27 24 27 30 25 26 27 31 31 32 32 32 30 31 32 32 36 38 38 36 35 36
22 21 18 12 13 18 15 23 29 30 31 30 34 36 37 35 28 26 23 27 29 29 35 31 32 31 29 22 20 23 25 27 26 30 33 35 37 36 33 35 36 37 39
21 21 17 13 14 20 18 21 31 30 29 30 30 23 19 20 21 24 27 29 29 31 29 25 28 33 34 30 28 32 35 24 33 28 30 31 33 33 36 34 34 33 35
20 19 17 14 15 17 20 24 21 22 27 25 25 25 27 27 24 21 20 25 32 31 30 30 31 33 33 29 31 32 32 32 29 27 25 23 25 29 30 31 34 34 36
20 18 17 15 15 19 22 21 25 29 29 22 24 29 24 25 26 21 22 25 24 25 26 31 31 30 29 28 28 30 30 29 30 31 32 32 31 33 35 36 37 37 38
22 19 19 16 15 19 22 25 25 27 26 33 25 22 26 27 25 26 23 21 23 26 27 29 32 29 29 26 29 29 29 31 32 31 32 33 36 39 39 39 39 39 40
25 23 23 22 19 19 24 26 28 24 23 27 26 26 25 24 22 24 25 25 26 26 26 29 33 32 29 30 32 29 34 34 35 36 36 36 33 40 40 43 45 46 48
30 28 28 28 22 21 21 22 23 23 25 25 25 26 27 28 30 29 27 29 30 34 36 37 35 32 32 38 32 35 38 40 40 40 36 44 42 42 43 48 49 53 54
32 32 32 30 28 25 24 25 27 28 28 29 28 29 30 31 31 30 30 33 34 37 36 31 32 33 36 39 40 40 45 48 43 45 41 43 45 47 50 50 52 59 56
36 36 37 35 34 32 30 30 29 29 30 31 33 32 33 33 33 32 32 33 29 30 31 35 39 43 44 43 43 43 45 44 44 50 50 49 53 55 55 56 57 54 61
37 37 39 40 38 37 36 35 34 33 31 32 34 34 34 33 30 28 30 34 35 37 41 44 42 43 44 45 46 52 51 50 52 52 56 50 52 55 57 52 53 60 60
39 34 34 37 36 31 32 31 28 30 31 34 37 36 37 33 38 35 38 40 37 37 39 42 44 47 50 51 50 50 50 49 47 46 48 49 49 49 50 49 49 48 47

GFSMA_700_spd_105.txt.gz
Wind_Speed
14 16 19 18 18 18 17 16 16 15 16 15 13 12 34 29 24 21 23 25 20 18 17 17 17 17 15 14 13 14 13 13 12 12 12 12 12 12 11 10 9 9 8
15 16 19 21 20 19 19 18 17 17 18 16 17 15 32 29 26 26 27 21 19 19 18 18 18 18 16 15 15 15 15 14 13 13 12 12 12 12 12 11 10 10 10
15 16 19 21 20 21 23 21 20 20 20 17 16 15 35 31 26 24 24 25 18 19 19 19 18 19 17 16 15 15 15 14 13 13 11 12 13 13 13 13 12 11 11
14 17 19 20 23 24 25 24 23 20 22 19 18 16 33 31 29 31 25 16 19 21 20 18 19 19 17 17 16 16 16 16 15 14 13 12 13 13 13 13 13 13 13
17 17 18 20 23 26 26 27 27 26 25 22 20 21 32 29 33 32 24 16 18 21 20 19 19 19 18 18 16 16 17 17 16 16 15 14 14 15 15 15 14 13 14
21 21 20 20 24 29 27 29 29 30 28 23 24 17 31 29 31 29 22 20 20 23 22 21 20 20 19 19 17 17 17 18 18 18 17 16 15 16 16 16 15 15 15
22 22 22 22 25 29 27 30 29 30 27 27 25 26 33 37 33 30 27 24 23 24 22 23 21 20 19 19 17 18 18 18 18 18 17 18 17 17 17 16 15 15 16
22 24 23 22 24 26 26 28 30 32 31 33 28 37 37 33 29 32 30 26 24 24 24 23 20 19 19 19 19 20 20 20 19 18 18 20 20 19 18 16 15 16 17
24 24 23 24 24 25 25 27 31 34 37 35 29 43 40 41 35 31 29 27 26 26 24 23 20 21 20 19 20 20 20 19 19 19 18 18 20 19 18 16 13 20 22
25 24 24 24 25 24 27 30 32 36 39 34 32 41 44 43 30 26 30 27 26 24 23 19 19 18 20 20 20 19 18 18 18 19 18 17 20 21 18 20 22 19 24
23 24 23 24 24 26 28 30 35 41 41 41 37 46 46 41 29 21 17 22 25 23 21 18 17 17 17 19 20 20 20 19 19 19 19 22 20 20 23 22 24 27 33
22 23 23 23 24 26 28 29 33 31 36 42 37 37 45 42 34 28 28 25 22 24 23 21 19 18 19 19 21 20 21 22 21 24 23 18 22 27 32 30 32 35 34
21 22 22 22 24 26 25 28 24 30 35 43 41 40 44 37 33 32 34 30 26 24 26 26 23 19 19 19 19 19 21 23 24 24 24 24 27 31 30 33 34 33 33
22 22 21 20 21 26 19 20 24 25 34 33 36 49 45 36 33 25 23 26 23 23 22 20 18 21 25 24 22 21 22 21 21 23 26 30 31 29 29 29 30 31 32
22 22 21 19 19 22 14 18 26 30 31 34 34 38 39 36 37 27 26 28 30 29 29 27 27 22 17 17 19 22 26 28 29 28 29 29 30 30 30 33 35 33 34
23 21 20 19 18 19 15 16 22 25 24 29 34 43 35 37 34 25 29 31 33 31 33 31 24 25 25 21 17 16 16 18 20 19 24 23 25 28 30 32 32 32 31
24 21 19 18 17 16 17 14 19 22 20 28 28 36 37 37 35 35 36 39 37 33 30 24 26 29 27 22 20 18 19 22 23 24 27 26 26 27 26 27 29 29 30
25 21 19 18 16 16 18 12 15 19 28 31 32 32 31 28 25 28 29 29 31 29 32 30 28 30 33 27 26 25 27 26 24 22 26 24 24 23 24 26 28 30 32
26 22 20 18 16 15 17 16 14 21 28 27 27 27 29 26 26 22 23 24 27 29 32 35 32 30 30 29 27 27 27 29 29 27 28 28 30 31 30 30 32 36 38
27 24 22 18 16 14 17 20 21 22 26 27 25 25 26 23 28 32 26 27 25 29 30 30 28 27 27 28 30 29 30 29 28 29 31 33 33 33 32 33 35 36 38
30 26 25 21 20 19 19 22 21 26 22 29 27 28 30 26 23 30 29 29 28 27 28 28 29 29 30 28 29 30 29 29 30 28 26 26 30 30 36 37 45 41 41
31 29 30 25 22 21 19 19 25 27 29 27 30 27 28 28 31 29 28 30 34 30 27 27 29 29 29 34 34 33 30 36 33 36 38 39 43 49 50 41 37 45 46
33 30 30 29 26 25 24 22 24 27 29 28 30 29 33 35 33 32 33 34 34 34 33 32 34 37 36 35 34 33 32 38 38 37 36 38 39 41 46 45 53 49 48
35 28 28 30 27 28 27 28 28 29 29 30 30 32 33 29 27 28 30 31 34 36 36 39 41 40 32 33 33 37 40 39 40 38 38 46 46 45 51 52 53 55 56
33 32 31 27 30 32 30 29 28 29 31 31 32 31 30 32 38 41 40 40 42 42 40 38 32 36 40 40 42 45 37 40 47 46 53 51 49 49 48 45 46 46 47
38 38 38 41 38 38 37 38 37 36 38 38 36 38 40 43 44 45 42 36 34 37 39 39 43 49 47 35 39 42 45 44 43 42 42 42 42 42 41 40 39 40 40

GFSMA_700_spd_108.txt.gz
Wind_Speed
12 14 14 15 16 16 16 15 15 15 15 15 17 19 21 19 30 31 26 23 19 20 20 19 18 17 16 15 14 13 12 12 11 11 10 11 12 13 13 12 10 9 9
10 13 15 15 15 15 17 17 16 17 17 18 19 21 21 19 31 33 27 26 23 20 21 20 19 17 17 16 15 14 14 12 12 11 11 12 13 13 13 13 11 10 10
9 11 13 16 15 15 19 20 19 18 19 20 21 21 20 20 31 33 27 24 23 21 22 21 20 18 18 16 16 15 14 14 14 13 12 12 13 15 14 14 13 12 11
12 11 12 14 16 18 18 21 21 20 21 20 20 20 21 15 31 34 29 26 25 23 22 23 21 19 19 18 17 16 16 16 16 14 14 14 14 14 14 14 13 13 13
15 15 15 14 16 19 19 21 23 23 23 21 21 22 22 22 34 35 26 24 18 22 24 24 21 21 20 19 18 17 18 18 17 16 15 14 14 14 14 14 15 14 14
18 18 18 17 18 20 20 22 24 25 24 24 23 23 23 23 37 35 29 29 21 20 24 23 23 21 21 20 18 18 18 19 18 17 16 15 15 15 16 16 16 16 15
21 20 21 20 20 21 21 22 23 25 26 27 26 27 27 24 34 34 36 29 23 23 24 24 24 22 21 19 18 18 18 20 19 18 17 17 17 17 17 18 18 17 16
24 23 21 22 22 23 23 22 22 25 30 30 31 30 31 31 37 35 34 33 27 25 23 25 25 23 22 20 19 19 20 20 20 18 17 18 18 17 17 18 17 16 15
25 24 22 23 23 25 24 22 22 25 31 33 34 39 35 35 39 42 35 35 29 25 24 27 25 24 23 22 21 21 22 21 20 19 19 19 19 19 16 16 17 16 17
26 25 24 23 25 26 25 22 23 26 29 34 38 39 36 38 47 43 41 38 30 29 26 25 25 25 24 23 23 22 22 20 20 20 19 19 19 18 17 18 21 17 18
28 26 23 24 25 26 25 23 25 29 32 35 38 45 41 37 44 39 38 32 31 32 27 25 24 22 23 23 24 23 22 20 22 21 21 20 20 20 21 21 19 20 24
30 27 23 24 24 26 24 23 23 30 35 36 36 43 43 46 48 36 37 24 20 23 23 24 23 21 21 21 21 22 22 22 23 22 22 22 22 19 18 20 25 30 29
31 27 24 24 24 25 23 22 25 31 32 41 33 35 39 38 39 40 43 31 26 23 23 25 23 21 21 20 18 17 20 22 23 23 24 23 24 24 23 23 29 25 28
30 29 27 25 24 25 23 22 25 28 30 34 37 35 44 40 33 46 41 36 35 31 26 26 25 25 24 22 19 20 24 21 22 24 25 23 23 25 27 34 29 28 29
32 31 29 26 24 24 21 21 19 19 25 22 34 33 39 47 36 44 40 31 26 27 30 23 24 20 22 23 21 22 25 24 24 24 23 24 27 30 32 30 30 30 31
33 34 30 26 24 23 21 18 16 14 20 29 28 35 42 42 38 44 31 33 24 21 22 23 22 23 28 24 21 17 19 21 23 24 27 27 25 27 27 26 26 28 32
32 35 32 26 24 22 20 17 17 15 21 26 29 31 34 37 47 37 37 38 32 27 26 31 32 29 23 28 26 23 23 18 20 23 22 28 26 29 28 26 31 34 31
31 36 32 26 24 21 20 16 16 16 23 23 30 34 28 39 42 36 39 37 31 32 29 33 34 31 30 30 27 27 22 23 23 23 26 28 28 30 31 33 31 32 32
34 35 31 26 24 20 20 17 19 16 16 23 22 23 32 35 40 34 38 31 32 28 36 32 32 32 32 32 35 30 30 26 26 28 27 29 28 31 30 31 29 32 38
35 38 30 28 25 21 21 19 19 17 16 17 20 24 25 29 29 31 28 22 23 27 31 32 32 30 35 34 35 34 29 28 29 31 29 32 31 33 35 36 35 41 36
35 38 32 31 27 25 24 19 22 20 24 23 21 30 24 30 29 28 30 28 32 33 34 30 28 31 33 33 33 30 32 30 30 32 30 31 32 37 30 31 35 40 38
41 40 37 32 28 26 24 21 21 23 27 22 24 30 30 24 28 27 31 33 33 30 31 33 35 34 30 30 31 32 31 31 34 34 35 34 41 40 42 43 47 51 46
38 38 40 34 30 28 26 25 25 26 26 30 32 28 35 34 33 36 37 30 31 36 35 33 34 33 31 31 32 34 35 38 38 37 39 41 43 43 42 46 42 44 45
39 39 39 34 33 30 29 28 27 27 33 29 33 33 32 35 30 33 34 35 33 33 35 34 34 36 35 34 37 39 40 39 40 41 46 47 46 48 48 43 48 54 53
36 41 40 35 34 35 33 30 27 29 31 34 33 34 37 35 34 38 38 33 28 30 30 31 32 35 39 40 41 40 36 38 45 45 40 44 44 43 51 54 48 46 44
33 42 38 36 35 35 32 32 30 28 31 35 36 38 36 37 34 34 39 38 38 38 41 42 43 46 44 39 40 41 43 48 48 40 39 44 47 45 44 42 40 41 41

GFSMA_700_spd_111.txt.gz
Wind_Speed
10 12 12 12 14 16 17 18 19 19 19 18 16 16 15 18 17 19 25 28 24 20 19 20 19 17 17 15 13 12 11 11 11 9 10 10 10 12 12 11 9 8 8
8 10 12 12 13 14 15 17 18 19 20 20 20 17 17 18 19 21 27 28 29 20 19 21 19 18 18 15 14 13 12 12 12 11 11 12 12 11 12 12 11 10 9
8 8 10 11 12 13 15 17 19 21 22 22 21 20 20 19 19 24 27 29 28 24 20 19 20 19 19 16 16 14 13 14 14 13 12 12 12 12 13 12 12 12 11
10 10 10 10 11 14 16 17 19 20 21 23 22 22 21 19 18 22 27 29 26 22 21 20 21 21 21 18 17 15 15 16 15 14 12 12 12 12 12 13 13 12 12
13 13 12 12 13 13 15 17 20 21 22 23 23 23 22 21 19 21 22 30 27 24 21 23 23 23 21 20 18 17 16 17 16 15 14 14 13 12 11 13 13 13 13
16 17 15 15 15 15 16 17 19 21 24 25 25 24 25 23 22 24 26 31 33 26 23 22 24 24 22 21 20 19 17 18 17 16 17 16 14 14 13 13 14 15 14
20 20 20 18 17 17 16 18 20 22 23 25 29 28 28 28 24 26 24 33 30 27 22 21 24 25 23 22 20 19 18 18 18 18 18 16 16 15 15 14 15 16 15
25 24 24 22 20 19 19 20 21 22 24 25 29 30 30 27 30 29 25 36 34 28 25 22 23 26 24 23 21 20 19 20 19 19 19 18 18 17 16 17 17 17 17
27 28 27 26 23 22 21 22 22 23 24 25 29 33 34 34 35 31 27 34 36 32 28 23 24 25 24 25 24 22 21 21 21 21 21 21 21 19 18 17 18 17 19
30 29 30 28 26 25 24 24 24 25 25 27 28 34 36 36 35 38 32 34 35 37 32 26 24 24 26 25 25 24 23 22 22 22 22 22 21 20 19 18 19 18 21
30 30 31 31 29 27 26 26 26 27 28 30 30 32 35 39 40 37 34 40 38 35 31 30 27 26 26 25 26 25 25 24 23 23 23 23 23 22 20 19 22 22 20
26 30 31 32 30 27 27 26 28 29 30 31 34 35 36 40 44 42 38 40 44 39 34 32 29 27 25 24 26 26 26 25 25 25 25 24 24 24 22 21 21 20 20
28 28 33 34 32 28 28 28 29 30 31 33 35 37 37 38 39 46 40 37 41 36 34 31 28 26 24 24 24 24 26 26 26 26 25 25 26 26 24 24 24 24 24
27 30 32 34 32 31 29 28 28 30 31 33 31 37 40 34 43 42 42 39 35 38 35 38 31 30 26 23 23 22 23 25 26 25 26 26 27 26 25 25 27 28 29
38 31 33 35 34 33 31 28 28 30 30 26 35 33 42 39 38 44 40 36 40 44 41 33 38 28 28 27 24 24 24 23 24 25 28 27 26 26 26 26 29 31 35
38 37 39 38 36 34 31 28 28 28 28 22 21 28 27 28 37 40 36 39 41 45 36 28 39 36 27 29 28 28 28 30 34 29 26 24 25 26 29 32 34 34 34
41 39 38 37 36 36 32 29 27 27 27 23 18 19 28 29 31 38 42 42 44 42 31 24 22 25 30 31 34 32 32 26 24 28 27 26 27 33 36 36 33 34 35
36 34 36 34 36 36 33 30 27 26 25 23 17 18 30 28 34 31 39 44 41 38 29 29 28 26 27 31 25 31 24 25 26 26 28 30 34 33 34 38 35 33 33
35 34 36 33 36 36 33 29 27 26 25 22 18 22 19 27 29 32 32 43 35 30 30 36 32 31 31 31 27 33 33 32 30 29 29 32 32 33 36 34 32 31 32
36 36 37 38 35 36 35 30 29 25 25 22 19 25 23 21 30 23 31 44 33 33 31 28 35 35 31 32 32 33 31 33 35 34 35 32 34 38 32 31 33 35 37
36 38 35 40 36 37 34 32 30 26 24 23 19 20 16 19 24 23 29 33 33 29 28 27 25 29 33 31 39 32 37 39 37 36 34 37 38 35 30 31 35 37 40
41 39 42 34 35 37 35 33 31 27 25 22 21 20 20 26 26 29 26 28 27 29 30 29 35 34 29 27 33 32 35 38 36 36 36 36 37 36 40 38 38 42 42
35 39 31 32 35 38 33 36 33 29 27 28 26 26 26 29 29 25 25 28 28 33 35 38 35 32 31 33 29 33 29 31 32 34 35 36 41 42 41 44 48 46 48
43 41 39 33 39 36 32 36 35 33 28 32 25 32 29 28 28 33 31 33 34 35 35 33 35 36 34 29 28 31 30 33 35 33 40 43 44 44 45 47 51 48 46
40 35 35 31 33 32 33 36 36 36 34 35 32 32 32 31 34 36 35 37 41 38 39 33 31 31 30 33 34 34 36 36 41 40 44 48 41 48 58 55 48 43 43
27 22 33 37 38 42 33 33 34 37 33 34 34 38 30 34 37 35 33 34 35 34 36 33 34 34 34 34 34 35 37 38 44 44 45 46 46 47 43 39 43 44 44

GFSMA_700_spd_114.txt.gz
Wind_Speed
5 7 8 11 13 15 17 18 19 18 18 17 16 15 14 13 14 13 17 19 21 20 25 22 20 18 16 15 14 13 12 10 10 10 9 9 10 11 11 10 9 7 7
3 5 7 10 11 13 16 18 20 20 20 19 18 16 17 16 16 19 21 20 21 23 25 25 19 19 17 16 15 14 14 11 11 11 10 10 10 10 11 10 8 8 8
4 4 6 8 10 12 14 17 19 20 21 21 20 18 18 18 16 19 22 22 24 22 22 25 17 18 17 17 16 15 14 13 12 12 11 11 11 10 11 10 9 9 9
7 6 5 7 9 11 13 15 18 20 20 21 21 21 21 20 19 20 21 22 23 25 27 24 18 18 18 19 17 16 15 14 13 13 12 12 11 11 12 12 12 11 10
11 10 8 9 11 12 13 14 16 18 19 20 22 24 23 23 21 21 22 20 18 24 29 26 20 21 18 20 18 19 17 15 15 15 15 14 13 12 13 13 14 12 11
15 13 12 12 13 14 14 14 15 18 19 20 24 25 27 25 24 22 22 22 21 23 24 25 24 26 19 21 21 20 18 17 17 17 17 15 14 14 14 13 14 13 12
19 17 14 16 16 15 16 16 17 18 19 21 24 26 29 28 26 27 22 23 22 23 29 29 25 28 21 22 22 20 19 17 18 18 18 17 16 16 15 15 15 15 14
20 21 19 19 20 19 19 19 19 19 20 21 23 25 30 29 31 27 23 23 24 25 31 30 30 28 21 24 23 21 21 19 20 20 20 19 19 18 18 17 16 17 16
20 19 18 21 24 24 22 22 21 21 21 22 23 25 31 32 29 29 26 28 26 26 30 28 34 28 22 25 24 23 23 22 21 22 22 22 21 21 20 20 19 18 17
23 22 22 23 27 27 26 25 24 23 24 25 25 27 31 32 34 34 33 28 28 30 31 33 34 30 22 26 24 25 25 25 25 23 24 23 23 22 21 21 20 19 17
27 25 25 25 28 28 28 28 27 26 26 27 27 26 29 32 35 38 34 31 31 34 32 32 41 33 25 26 25 26 27 27 27 25 25 24 23 23 23 23 22 20 20
32 29 27 24 27 29 30 29 29 28 29 29 29 29 30 34 37 37 35 38 33 34 31 39 33 33 28 28 27 26 28 28 28 27 26 25 25 25 24 24 24 22 22
38 34 28 28 25 30 29 30 31 30 30 31 30 30 30 34 38 38 36 37 38 38 35 38 33 38 33 29 28 26 27 29 29 29 28 28 27 27 26 26 26 26 25
33 34 30 28 25 28 32 32 33 33 31 32 31 30 30 34 39 40 34 35 37 44 38 31 39 30 37 31 30 27 26 28 29 29 29 29 29 28 29 28 28 28 28
38 36 33 34 32 28 30 32 35 33 32 33 32 30 30 28 39 38 35 38 34 38 40 35 37 28 39 35 30 27 26 26 26 28 30 30 29 28 28 29 30 29 29
41 41 39 37 37 36 34 35 36 35 33 33 31 31 29 27 39 44 36 35 35 38 37 36 34 36 42 37 32 31 29 28 27 28 29 29 28 28 30 31 31 33 32
39 40 40 43 42 42 42 37 38 37 34 33 31 29 29 25 31 25 24 31 33 36 38 36 38 35 30 41 40 36 34 31 30 30 29 31 29 30 32 31 33 33 35
47 44 45 47 45 44 36 36 38 39 35 33 30 29 24 23 30 28 27 25 31 35 37 39 40 39 29 41 33 36 37 36 36 36 39 37 35 37 37 37 36 38 38
46 47 47 45 42 39 34 38 37 41 37 33 29 28 24 23 24 27 26 27 28 34 36 34 38 35 29 32 46 46 43 45 41 41 39 37 35 37 33 36 35 37 34
35 40 42 40 38 35 38 41 43 42 38 32 28 27 23 18 24 23 25 26 28 29 42 41 35 32 35 31 30 28 33 29 35 33 37 38 33 34 35 36 34 38 37
31 34 37 39 37 37 41 46 39 40 37 33 29 27 22 22 23 20 24 28 24 27 35 36 30 29 40 37 33 30 30 36 31 34 31 34 38 37 35 33 38 39 37
30 33 35 38 39 42 48 39 38 39 36 32 30 28 23 22 26 21 22 25 20 26 37 36 28 28 31 30 34 32 33 35 39 33 37 41 41 37 32 37 37 33 34
31 36 31 40 39 43 43 38 31 37 33 32 34 30 28 23 24 24 20 24 25 24 34 39 30 27 30 30 32 33 29 33 36 32 36 41 42 36 36 39 39 38 39
22 27 27 29 31 35 32 34 27 32 32 33 34 31 29 25 27 28 28 29 30 31 29 29 32 32 31 34 34 28 32 34 33 36 35 37 34 37 39 41 42 41 42
19 23 22 17 33 30 35 36 30 31 32 33 33 33 30 32 33 29 31 34 33 32 32 35 34 32 38 34 39 37 33 31 35 39 39 40 42 43 43 41 42 43 45
9 12 22 23 28 35 33 36 37 32 30 33 34 32 32 34 32 35 36 36 36 38 42 36 34 34 35 29 33 35 34 35 38 42 44 41 38 43 43 48 43 42 44

GFSMA_700_spd_117.txt.gz
Wind_Speed
6 8 9 11 12 13 13 14 15 14 16 16 15 14 13 12 11 12 14 15 20 20 25 23 19 18 17 16 15 14 13 13 13 12 11 11 11 11 12 11 9 8 8
6 7 9 10 12 13 14 16 17 17 18 18 17 15 14 14 14 15 17 18 20 19 16 22 26 20 19 18 16 16 15 13 13 13 12 12 12 12 13 12 11 10 9
8 6 7 9 11 13 14 16 17 17 18 18 18 17 15 15 17 18 19 19 20 20 21 23 21 22 19 19 18 17 16 15 15 14 13 13 13 14 13 13 12 11 10
10 9 7 8 9 11 12 13 15 16 17 17 18 18 18 18 19 20 21 20 21 21 22 22 23 26 20 19 19 19 17 16 17 16 15 15 15 15 15 14 13 12 12
14 12 10 9 10 11 11 12 14 15 16 18 18 19 20 21 21 22 23 24 22 19 18 18 28 26 21 19 20 20 19 18 18 18 17 17 16 16 15 15 15 14 14
19 16 13 12 12 12 12 13 14 15 16 19 19 20 21 23 25 24 23 24 23 21 19 19 28 30 25 22 20 22 21 20 20 19 19 18 17 17 16 16 15 15 14
21 20 17 15 14 13 14 15 17 18 18 19 20 20 22 25 26 25 24 26 23 22 23 22 32 27 29 23 22 23 23 21 20 20 21 21 20 19 18 18 17 17 16
22 22 21 19 17 17 17 17 18 19 20 20 21 21 23 23 25 24 25 26 26 23 23 23 26 28 36 27 25 24 25 22 22 22 23 23 22 22 20 19 19 18 18
20 19 21 22 21 20 20 20 21 22 22 22 22 24 25 25 23 24 27 29 28 26 21 23 25 36 33 34 28 26 28 26 25 24 23 25 25 24 23 23 21 20 20
26 24 22 20 21 21 23 25 25 25 25 25 25 25 25 27 26 26 25 26 30 28 28 21 27 28 30 38 31 28 29 27 27 26 26 27 26 26 25 25 23 22 21
31 30 26 25 25 24 25 29 30 28 27 27 27 27 26 27 27 32 30 29 29 29 27 28 29 32 33 40 31 29 29 29 31 29 28 28 28 27 26 26 25 23 23
33 34 30 30 29 28 24 28 31 31 29 29 29 30 28 28 28 30 31 32 32 30 28 30 31 30 38 39 34 27 30 31 32 30 28 29 29 29 29 27 26 26 25
37 35 34 35 33 30 27 26 30 30 30 30 31 31 31 30 29 30 32 31 36 39 35 35 32 30 34 36 43 30 31 33 33 32 31 30 31 31 29 29 28 28 27
37 36 31 39 38 34 29 23 25 31 32 32 33 33 33 30 30 30 32 32 35 37 37 33 32 34 29 38 40 31 31 34 34 33 33 31 31 33 31 31 30 30 29
38 36 37 37 40 37 32 29 29 27 31 33 35 35 34 32 31 30 31 31 33 32 37 32 30 35 33 38 35 40 33 34 34 33 33 32 33 34 33 32 32 32 30
35 38 38 39 40 39 38 36 35 33 33 34 35 36 34 33 31 30 31 34 32 37 41 38 30 31 33 36 35 41 36 35 35 32 33 33 34 34 33 33 34 32 32
38 40 41 40 44 44 42 42 40 38 39 38 37 37 35 34 32 30 29 29 29 32 34 32 37 32 31 41 32 42 38 37 37 34 32 32 35 34 33 33 34 33 34
39 41 43 44 44 47 46 46 43 44 41 37 36 37 35 34 32 29 28 28 30 26 30 28 27 31 35 39 38 33 45 39 38 37 38 42 37 35 34 31 39 37 33
42 45 47 47 48 47 49 49 46 44 41 38 36 39 37 34 33 28 29 31 29 32 28 27 30 32 27 37 37 37 42 49 45 42 43 41 38 37 37 39 44 40 39
44 46 50 50 51 49 52 52 48 44 39 41 41 40 38 35 33 28 26 23 25 28 30 24 31 35 36 31 39 39 42 48 46 44 42 42 39 43 45 48 38 39 37
32 34 37 41 42 46 50 50 46 42 38 46 44 42 39 35 32 28 28 25 23 24 23 27 31 37 40 39 40 33 33 42 38 39 41 48 47 43 45 41 39 39 42
24 35 35 38 40 40 41 41 41 42 37 40 42 41 38 36 32 29 29 27 27 22 27 26 28 26 39 38 32 36 34 37 40 37 41 34 37 36 39 42 43 41 39
28 25 32 34 37 39 38 40 42 41 48 33 42 39 37 36 33 32 30 32 29 25 26 25 26 32 36 29 28 35 41 40 39 39 37 37 40 35 41 41 46 46 41
25 27 30 29 37 39 38 31 42 40 36 37 42 44 35 36 32 34 33 30 28 25 25 26 26 28 38 31 28 30 32 36 37 36 37 38 42 43 39 49 50 44 38
15 18 20 23 26 31 30 35 30 26 33 31 37 33 38 38 33 37 35 31 30 30 29 29 29 32 30 33 35 34 38 41 43 44 42 38 39 39 41 43 43 42 40
8 7 8 13 18 23 28 28 35 38 34 37 39 38 37 42 37 32 35 39 36 36 35 39 34 37 38 37 38 35 37 40 35 43 44 44 42 48 44 46 48 46 46

GFSMA_700_spd_123.txt.gz
Wind_Speed
16 18 18 18 16 17 17 17 17 16 15 15 15 14 14 11 11 12 13 15 12 13 13 12 10 19 18 16 15 14 15 14 14 13 13 14 15 16 18 18 18 18 17
17 17 18 17 17 17 17 17 17 17 17 17 17 16 15 14 13 13 12 13 15 14 13 13 14 16 28 18 16 15 15 16 17 15 15 16 17 17 18 19 19 19 18
19 18 18 17 18 17 17 18 18 17 18 18 17 16 15 15 15 15 14 15 16 17 17 17 16 17 13 31 21 16 18 18 18 18 18 18 18 19 19 20 21 20 19
21 20 18 16 16 17 17 18 18 18 17 17 17 17 16 16 17 16 17 17 17 18 19 18 18 17 13 16 29 27 22 20 21 20 20 20 20 21 21 22 22 21 21
24 23 20 17 15 15 16 17 17 17 16 15 15 16 17 16 19 19 18 19 18 19 20 20 19 19 18 21 24 28 27 23 23 22 22 22 22 22 22 23 23 23 22
27 25 22 20 18 16 15 16 14 16 15 14 15 16 16 17 19 19 20 21 21 21 21 21 22 21 21 21 24 28 29 26 26 25 24 24 23 23 24 24 25 24 23
30 28 26 23 21 18 16 15 15 16 15 15 16 15 16 16 18 20 20 22 24 23 22 24 23 23 22 23 25 26 28 33 27 28 26 26 26 26 26 26 26 26 25
35 32 29 26 23 21 20 18 17 17 16 17 17 18 19 19 18 20 20 19 21 22 25 24 25 25 23 24 26 25 28 34 31 27 27 27 28 27 27 27 27 27 26
41 36 31 29 26 25 23 21 21 19 20 20 21 21 21 23 20 22 17 20 20 20 25 23 25 26 27 25 23 24 22 27 30 27 28 28 30 31 30 31 30 29 27
42 39 34 31 28 28 27 24 24 22 24 23 25 25 25 25 24 21 24 21 21 21 22 26 26 27 30 28 29 25 21 27 29 27 27 32 33 33 32 33 32 31 29
41 40 34 31 29 30 29 28 27 26 25 26 26 29 29 30 29 29 30 28 23 22 22 24 24 27 33 32 30 27 24 29 37 30 28 32 35 35 34 33 33 32 31
40 38 34 31 29 28 27 27 27 27 27 26 26 30 32 33 33 33 32 31 30 27 24 27 25 30 33 34 33 29 29 28 30 44 35 35 38 36 36 36 37 35 33
37 34 35 34 33 31 31 30 31 30 29 28 27 27 30 31 33 35 35 33 34 31 32 23 25 28 31 33 32 36 33 32 34 40 42 34 36 37 38 38 38 37 36
39 32 31 30 33 32 32 33 34 33 32 31 30 28 27 28 31 34 34 36 38 34 31 31 30 26 32 31 35 36 38 32 32 41 41 34 37 38 39 38 39 39 37
35 38 34 38 38 37 35 34 38 40 36 32 33 29 29 26 26 28 30 33 37 34 34 33 32 30 26 32 34 32 36 33 34 32 49 46 39 40 40 40 40 39 38
36 37 40 41 40 39 39 39 41 44 45 36 35 37 32 30 31 31 33 34 37 36 37 33 35 34 29 31 30 32 30 34 33 37 40 52 45 40 40 41 41 40 39
42 41 38 34 37 41 42 42 42 42 46 41 46 39 36 30 35 37 38 38 40 38 38 34 34 34 35 31 34 37 38 38 40 38 37 47 52 41 41 43 42 41 40
43 38 35 37 39 38 40 43 42 41 43 41 42 44 29 35 45 36 41 45 43 42 42 46 36 35 35 31 30 30 33 38 38 39 40 45 51 45 42 43 43 43 43
30 32 36 38 37 35 37 40 41 42 42 46 47 40 36 36 40 42 49 48 46 46 46 50 38 37 38 34 33 31 33 31 35 39 43 48 48 51 45 43 42 42 43
25 26 28 34 37 40 42 44 48 51 54 49 47 50 50 52 53 53 51 51 49 48 45 46 38 42 43 33 32 35 33 37 34 37 41 50 46 48 50 45 43 43 42
25 26 28 29 30 35 41 46 48 50 52 55 58 57 58 58 57 56 53 50 47 56 45 46 39 45 44 35 34 30 28 32 34 34 38 49 46 46 42 49 47 42 40
24 25 28 31 34 36 36 39 41 43 47 51 49 47 49 47 48 51 48 49 47 50 47 40 41 46 42 38 30 34 33 35 36 36 34 44 49 46 42 42 47 48 47
18 18 22 24 27 30 32 32 31 32 34 39 40 38 39 43 47 47 47 45 47 43 47 42 44 43 39 38 32 35 34 33 33 33 39 35 39 45 50 40 47 46 47
15 20 21 22 25 28 29 32 35 36 36 40 36 39 40 44 43 44 42 45 44 44 42 45 43 42 43 38 39 35 31 31 33 32 34 42 44 40 37 34 45 45 46
9 8 7 8 11 15 19 21 26 29 30 33 37 39 44 42 41 38 45 45 43 47 46 44 54 44 45 43 40 36 37 34 35 36 38 37 37 38 38 45 47 47 48
11 11 10 10 10 10 10 11 12 15 20 24 28 32 35 34 38 41 47 49 51 51 43 47 44 46 44 46 40 38 36 37 35 41 40 33 34 36 38 43 46 50 50

GFSMA_700_spd_126.txt.gz
Wind_Speed
19 18 17 18 18 18 19 17 17 17 17 15 15 10 10 10 10 10 9 13 8 9 9 7 9 6 18 29 18 16 14 12 11 14 15 14 15 15 16 18 18 18 17
20 20 20 20 19 19 20 18 18 17 18 17 16 12 12 11 12 11 10 12 12 8 10 9 8 9 9 11 24 18 15 13 13 15 16 16 16 17 18 19 20 20 19
23 22 21 22 20 21 21 20 20 18 18 17 16 14 13 13 13 14 11 13 13 14 11 12 12 13 14 18 24 23 17 15 15 16 17 18 18 19 20 20 21 21 21
26 26 23 22 20 22 21 20 19 17 17 17 16 15 14 14 14 14 12 12 13 14 17 14 14 14 15 11 6 25 21 21 19 19 19 20 20 21 21 22 23 23 22
30 27 25 23 22 21 21 20 18 17 16 16 16 16 14 14 13 13 13 12 12 15 15 18 17 16 15 15 14 13 26 30 29 23 22 22 23 22 22 23 24 24 24
32 30 28 25 24 22 21 19 18 17 15 15 14 15 16 15 14 13 14 15 14 14 17 18 20 18 17 17 16 15 18 29 30 30 25 25 25 25 25 25 25 26 25
35 33 31 28 27 23 20 19 17 17 16 15 15 14 12 13 14 14 15 16 17 17 17 20 19 20 20 19 19 17 20 18 22 28 27 28 27 27 27 26 27 28 26
40 37 34 30 29 25 23 22 20 19 18 17 16 15 14 15 13 15 17 16 17 18 20 19 20 21 21 22 20 19 18 21 25 26 25 36 30 29 28 29 29 29 30
45 39 36 34 32 30 26 24 22 22 20 19 19 17 17 16 18 17 17 15 16 16 18 20 18 20 22 23 25 24 21 20 21 24 34 37 31 31 29 30 31 31 31
47 42 40 38 35 33 30 28 26 24 24 22 21 19 19 21 22 25 24 21 18 17 18 19 19 20 23 25 25 27 25 24 19 24 26 29 32 31 31 31 32 32 32
50 45 43 42 38 34 32 31 29 28 27 25 23 22 20 23 25 27 29 29 27 24 22 21 22 22 23 23 25 27 28 26 21 19 27 27 31 32 32 33 33 33 33
56 47 44 44 41 36 34 32 31 30 29 27 26 25 23 23 24 28 29 29 31 30 28 26 25 23 20 22 27 29 29 29 26 23 26 34 31 31 33 34 34 35 35
60 50 43 43 42 37 35 33 32 30 29 29 29 27 26 24 24 24 27 27 30 29 27 28 28 28 24 24 26 28 29 29 30 30 28 32 37 44 32 36 34 36 37
58 48 41 41 42 38 35 32 31 30 31 32 33 32 30 26 25 23 22 23 25 27 29 32 31 29 29 26 26 26 28 32 33 34 34 32 38 43 40 35 36 39 38
57 43 38 38 37 35 34 31 33 32 33 34 36 34 35 31 30 24 21 20 21 24 24 26 31 33 32 27 25 27 30 32 38 35 36 35 33 38 44 42 39 39 39
51 49 39 30 30 32 33 31 32 33 35 37 37 44 36 44 42 25 28 23 24 27 30 26 29 35 38 34 31 29 29 32 34 31 36 34 37 40 45 48 42 39 40
41 41 34 28 27 30 27 30 37 38 39 39 40 43 40 40 41 36 35 32 29 30 35 28 32 34 41 38 36 32 30 33 35 37 38 39 38 41 40 51 53 43 39
47 49 40 29 22 25 33 36 35 41 43 43 41 38 40 34 32 32 35 29 41 47 39 39 36 38 37 42 44 37 30 32 35 35 43 45 42 45 42 45 51 48 42
43 51 51 32 27 33 37 37 38 44 43 44 44 41 39 36 37 38 35 34 31 28 35 40 46 44 44 43 41 40 33 33 38 35 38 38 43 44 46 46 50 53 45
20 24 30 32 37 39 38 44 41 39 40 42 43 43 43 44 43 44 44 43 43 45 47 49 44 50 47 44 38 43 39 32 34 37 34 37 37 39 43 48 51 54 49
18 22 25 27 30 33 37 36 37 39 40 42 44 46 48 49 49 50 51 51 52 52 53 53 41 48 35 37 39 39 40 35 37 35 32 33 34 37 42 40 50 48 52
12 15 15 21 25 24 24 29 30 33 37 41 45 47 49 52 53 52 51 49 44 48 42 36 47 45 46 41 44 40 45 36 37 34 34 34 32 35 36 37 48 47 41
2 9 13 14 17 21 22 25 30 31 32 34 37 38 40 41 42 41 39 47 40 42 49 50 47 48 45 43 44 48 44 37 36 36 35 34 37 36 36 36 43 52 45
7 3 6 13 18 21 18 25 27 28 30 34 36 38 42 40 40 42 42 39 40 40 45 44 46 47 46 42 38 39 35 38 37 38 36 35 33 35 37 39 33 42 44
12 9 7 6 6 6 7 7 9 13 18 22 27 30 32 34 35 43 38 42 46 46 48 46 49 44 46 46 45 47 41 42 45 43 44 39 36 38 35 37 43 44 48
13 12 12 11 12 12 12 12 13 14 14 14 14 14 17 21 24 30 36 39 43 44 50 42 46 47 50 47 50 53 53 44 48 48 40 41 34 35 39 42 43 46 45

GFSMA_700_spd_129.txt.gz
Wind_Speed
24 23 21 21 21 20 20 19 18 19 19 17 16 15 13 12 10 7 7 6 5 6 5 6 3 5 9 10 22 19 15 14 13 12 13 13 14 14 15 16 17 18 18
27 25 23 23 22 21 20 20 20 20 19 18 17 16 14 13 12 8 9 7 6 4 6 5 6 5 7 8 11 24 18 17 14 14 14 15 15 16 18 17 18 19 19
30 29 26 24 23 20 22 22 22 22 22 21 19 17 15 14 13 11 10 9 8 7 6 7 8 9 10 10 10 16 27 21 14 13 15 16 17 18 19 19 19 21 21
33 30 28 27 23 23 24 23 23 23 23 21 19 16 16 16 16 13 11 10 10 9 8 8 9 10 11 10 10 11 19 22 17 17 16 17 19 19 20 20 21 22 22
36 33 29 29 25 25 25 24 24 23 22 21 19 18 16 15 15 12 11 10 9 9 9 10 10 11 11 12 12 11 10 23 22 21 22 20 21 22 22 22 23 25 24
39 37 32 31 30 27 26 24 23 23 22 21 19 17 16 15 13 11 10 9 8 8 8 9 12 12 12 13 13 13 13 13 18 23 23 32 26 24 25 25 26 26 27
43 40 37 35 34 30 26 24 24 24 23 21 20 20 18 15 14 11 9 9 9 10 9 9 10 12 14 15 15 15 15 15 18 20 21 24 27 25 26 26 28 28 29
47 43 41 39 35 32 29 27 26 24 24 23 21 20 19 17 13 12 13 11 9 11 10 8 9 11 13 16 15 17 18 19 17 19 21 24 24 30 26 28 30 29 31
50 49 46 42 38 35 33 29 28 26 25 24 21 21 20 17 13 16 14 12 11 11 10 11 9 10 11 15 17 17 19 20 19 19 18 25 29 30 35 33 31 31 31
52 54 49 45 42 38 36 32 31 29 27 25 24 22 21 20 19 18 18 18 17 15 15 14 13 11 12 14 17 18 19 21 22 22 21 21 28 34 36 39 31 32 32
55 55 54 49 47 43 38 36 34 32 30 29 26 24 22 21 22 23 22 22 23 21 22 19 18 16 15 14 14 15 17 20 22 24 22 21 23 20 23 28 30 32 32
52 59 59 54 50 46 41 38 36 35 32 30 28 26 25 25 23 23 25 25 24 24 24 25 22 18 18 17 15 14 17 20 23 24 25 24 21 25 25 27 30 32 33
56 69 65 60 54 48 44 40 39 37 34 32 30 28 28 27 25 24 26 26 27 26 26 26 25 20 20 20 17 18 19 20 22 24 26 28 24 25 32 32 31 33 34
66 49 69 60 53 47 45 43 41 39 35 34 32 31 30 29 29 28 27 26 27 26 26 21 22 20 19 21 21 19 21 19 22 22 23 27 30 28 32 39 41 38 33
38 41 68 59 52 46 44 44 42 39 35 33 32 31 30 31 32 32 30 28 28 29 26 23 22 19 17 19 23 24 24 25 24 25 25 27 34 32 32 34 40 42 48
5 62 63 50 45 42 45 45 41 37 35 33 32 31 30 31 33 34 32 37 35 48 35 25 24 21 24 20 19 21 25 27 26 26 26 27 30 34 36 38 36 39 44
44 24 38 48 49 45 46 45 43 39 37 34 33 31 30 34 36 37 49 35 36 37 32 26 31 26 29 30 27 26 26 29 31 30 30 28 30 35 34 38 37 43 43
41 26 24 31 38 39 38 30 31 34 28 32 33 33 32 35 38 39 38 38 34 29 32 29 26 39 40 33 35 35 33 34 35 32 31 30 33 34 37 44 43 51 37
32 44 33 34 40 6 35 30 17 16 18 23 28 34 36 40 40 38 40 39 36 34 32 33 36 32 33 39 38 44 35 39 37 32 33 33 36 36 36 38 43 46 50
24 37 39 35 43 39 27 29 28 22 24 27 35 37 38 39 41 41 41 40 38 41 41 43 44 44 47 48 46 43 40 30 33 36 35 32 32 33 38 39 39 46 46
10 24 22 36 41 48 34 27 29 26 30 36 41 36 36 37 40 43 43 43 46 46 45 48 49 45 49 51 50 40 33 37 36 36 37 31 32 33 38 38 40 40 43
8 8 13 13 10 18 25 29 35 31 29 27 36 43 38 36 42 44 46 43 45 47 48 49 40 51 44 44 34 34 37 42 43 40 36 39 36 31 32 31 36 35 41
4 1 1 3 4 8 17 18 17 19 24 30 33 34 35 35 37 40 43 42 44 43 44 41 46 43 48 44 40 44 43 41 41 42 43 40 38 32 36 36 37 39 40
15 16 10 5 3 7 12 15 18 21 26 28 29 31 32 36 39 39 40 42 44 43 44 43 45 50 53 50 51 46 43 43 41 38 35 33 35 34 37 38 38 39 40
16 15 13 11 10 9 7 7 8 9 10 11 13 16 19 23 28 31 35 39 43 48 49 45 47 44 45 46 46 47 44 46 46 42 43 41 45 38 39 41 41 39 36
13 12 11 10 11 11 10 10 11 12 13 14 14 14 14 16 17 17 18 20 26 29 35 40 44 48 50 50 54 53 50 49 52 53 47 50 43 51 47 44 42 39 36

GFSMA_700_spd_132.txt.gz
Wind_Speed
31 28 27 25 24 25 25 24 23 22 22 20 20 19 18 16 14 13 11 11 8 9 7 6 2 7 5 11 15 21 25 18 16 14 12 14 13 14 15 14 14 15 16
35 32 30 27 25 26 26 25 24 24 23 22 21 20 20 19 17 15 14 12 10 8 7 7 5 6 7 6 11 17 23 21 16 15 14 14 14 13 15 15 15 17 18
39 35 33 30 27 27 26 27 27 27 27 25 23 23 22 21 19 16 15 14 12 9 9 8 8 8 9 10 9 9 13 26 18 16 14 13 13 13 15 16 17 17 19
41 40 37 33 30 29 30 29 28 28 26 25 24 24 22 20 19 17 15 14 14 12 10 10 9 10 10 11 11 10 11 19 28 22 17 11 11 13 16 17 18 20 21
47 43 39 36 33 32 32 30 29 28 28 27 25 23 22 21 20 17 16 14 13 11 11 11 11 12 12 13 12 12 13 11 20 21 21 16 19 16 17 19 19 22 23
49 44 43 39 35 35 34 32 29 29 29 27 26 25 23 22 20 17 15 13 12 11 10 10 12 12 13 14 14 14 14 13 17 23 24 25 22 24 29 22 21 24 25
48 48 47 41 37 38 35 32 30 31 30 29 27 27 26 23 23 19 16 12 10 11 11 11 11 12 13 15 15 15 15 16 16 17 19 21 23 26 27 31 25 25 26
49 46 49 46 42 41 38 37 33 32 30 30 30 28 28 26 23 19 16 13 11 11 9 10 9 9 12 14 15 16 16 18 19 18 18 20 20 22 22 31 27 27 28
52 51 55 50 47 44 40 38 35 34 32 31 32 31 29 24 18 17 16 14 13 12 10 9 8 9 9 11 13 16 16 18 21 21 20 19 20 22 25 28 33 31 30
57 51 52 53 52 48 44 41 38 35 34 33 33 33 29 24 21 20 18 15 14 13 13 12 12 12 11 10 12 14 17 18 20 23 24 23 22 22 24 28 29 35 40
65 58 56 59 61 53 48 45 41 39 36 34 33 32 30 27 25 23 20 18 18 16 16 17 17 17 17 17 14 13 15 17 18 22 23 25 25 25 25 27 24 23 42
63 60 60 47 63 53 52 47 44 41 39 37 35 34 31 29 26 25 22 21 20 19 18 19 21 22 20 21 19 17 15 16 18 20 24 24 26 27 26 26 19 19 21
58 65 62 61 56 41 53 50 48 44 42 40 37 35 33 31 29 27 26 25 23 21 21 22 22 21 21 23 21 21 20 20 18 19 21 21 24 27 28 26 27 24 25
58 63 58 67 56 46 58 55 50 45 44 41 40 38 35 33 31 30 28 27 26 27 26 23 20 21 19 22 21 22 22 22 22 19 20 21 21 26 28 28 27 32 32
52 50 63 66 63 58 52 54 51 49 45 43 40 38 37 34 33 32 30 29 29 31 29 24 20 30 30 24 21 19 19 22 25 25 22 23 23 24 27 27 32 32 32
49 44 56 62 55 33 57 51 48 48 47 43 41 40 39 38 36 35 34 31 33 35 33 31 31 33 35 32 24 22 19 18 23 25 26 25 25 26 29 27 33 35 39
30 44 48 50 41 44 49 53 50 48 48 44 43 42 41 39 38 39 41 37 33 38 35 38 30 24 23 31 31 28 24 23 26 26 26 29 31 30 32 32 30 34 35
23 37 35 40 26 41 36 57 51 48 51 51 50 47 46 43 41 39 32 30 35 43 40 31 27 18 19 19 21 31 34 29 31 32 33 33 34 35 34 36 37 31 38
14 21 27 33 6 14 52 45 54 48 55 56 50 47 36 40 39 37 37 38 37 36 38 36 32 28 26 29 32 31 31 36 39 43 35 36 36 36 37 37 39 38 35
9 9 16 12 33 20 2 23 37 38 48 47 46 51 44 44 41 35 38 38 40 41 38 40 36 35 37 36 37 39 40 44 43 43 39 38 34 40 38 39 40 41 40
11 5 10 15 18 34 35 20 15 13 15 16 20 31 25 22 26 29 37 36 35 40 38 38 40 42 44 42 41 40 40 41 41 41 41 36 35 35 37 39 40 42 42
14 10 8 4 12 24 32 32 32 27 26 23 20 22 29 28 30 31 31 33 34 39 41 45 45 48 43 45 47 43 44 44 38 36 36 41 38 41 38 41 40 41 42
15 8 9 6 6 7 4 4 3 7 10 13 13 17 23 30 34 39 31 38 38 40 43 45 48 48 47 48 45 43 49 35 32 36 40 45 45 41 40 43 46 43 42
27 24 20 18 16 16 16 14 13 12 11 11 13 16 17 21 28 33 35 38 42 43 43 44 45 46 48 52 46 47 47 50 53 48 47 45 43 41 37 36 37 42 42
21 19 17 16 13 10 9 9 7 6 7 8 8 8 9 11 13 17 19 20 23 27 33 38 43 46 46 51 48 49 49 50 49 51 44 48 46 43 42 45 45 44 44
16 15 13 11 11 11 11 11 12 11 11 13 13 13 13 15 15 16 17 19 20 21 21 21 23 29 34 43 44 51 50 53 54 51 52 52 51 50 48 45 47 47 48

GFSMA_700_spd_135.txt.gz
Wind_Speed
38 35 33 31 29 27 27 28 26 27 27 26 25 23 22 19 17 16 14 13 13 11 13 12 11 9 6 12 15 16 23 23 18 16 14 14 14 14 14 15 14 15 16
39 41 38 35 32 30 27 29 28 29 28 28 27 25 24 21 20 19 17 17 16 12 13 13 11 11 7 9 13 16 16 24 25 19 15 15 13 13 12 14 14 15 16
40 40 43 40 35 32 29 29 31 32 32 31 29 27 26 25 23 22 20 19 17 15 13 14 13 12 12 13 12 12 14 17 21 21 18 15 14 13 13 14 14 14 16
42 42 45 44 39 36 33 31 32 34 34 33 30 28 27 26 24 23 22 21 19 17 15 14 14 13 12 13 13 12 11 8 15 24 22 16 14 13 13 13 14 15 17
52 44 46 46 44 41 37 34 34 34 34 33 31 29 29 28 27 26 23 21 20 19 17 16 14 14 13 13 13 14 14 13 12 18 23 25 19 16 12 13 15 15 18
58 57 47 56 45 44 41 39 37 36 35 34 31 31 30 28 29 27 23 21 19 20 18 16 15 14 14 15 15 16 16 15 15 13 16 21 23 20 20 22 19 17 20
59 59 57 50 56 46 45 43 40 38 38 36 34 33 32 32 31 29 24 20 19 18 18 17 16 14 15 16 17 17 17 16 16 15 16 20 21 22 24 24 24 26 26
55 62 64 52 49 57 48 45 41 41 40 38 37 35 36 36 35 31 27 22 18 17 17 17 16 16 16 16 17 18 18 19 18 18 19 20 19 19 19 21 22 22 27
54 59 60 66 65 64 53 46 44 43 42 40 39 39 39 37 33 31 26 23 20 18 17 16 15 14 14 13 15 15 17 18 19 20 22 23 22 21 21 22 22 24 28
57 54 61 65 58 65 53 47 45 45 44 42 42 40 38 35 32 29 25 23 22 20 17 16 16 14 14 12 12 13 14 18 20 20 22 24 25 24 23 21 21 23 26
60 53 59 65 73 61 32 54 48 47 45 44 43 42 39 37 33 27 26 24 23 20 19 18 19 20 20 18 17 17 17 16 19 20 22 23 24 26 27 26 24 24 24
59 57 55 62 61 64 44 47 47 49 47 46 44 41 41 37 33 32 28 27 24 21 21 22 23 23 24 24 22 22 23 21 20 19 19 21 23 24 27 30 28 26 28
54 58 55 55 58 54 52 52 45 52 50 48 44 42 40 39 36 31 29 28 27 26 26 25 24 23 24 25 27 27 26 26 26 24 21 20 21 22 24 28 27 28 26
44 53 54 54 53 54 57 54 43 47 54 49 46 43 41 40 38 35 32 31 31 31 30 28 26 24 24 23 25 29 30 30 29 28 26 23 21 22 22 25 27 30 30
34 39 48 53 53 51 51 65 66 43 53 52 49 46 45 42 38 38 36 35 35 34 33 31 28 26 24 22 22 30 34 33 29 29 28 27 26 24 23 24 25 27 31
24 28 32 43 46 53 48 49 50 55 43 50 50 48 46 44 41 41 39 38 38 37 37 34 30 27 30 29 32 32 36 32 28 28 29 29 28 28 26 25 26 28 30
15 20 21 31 38 44 51 44 34 45 42 48 48 49 47 45 42 42 42 41 42 41 41 36 36 34 34 34 30 30 37 34 29 25 25 25 27 26 29 31 30 32 33
5 7 7 15 31 30 26 38 40 53 53 50 49 53 51 48 46 45 45 44 44 45 43 37 33 41 35 29 24 20 28 39 46 34 35 29 29 34 31 34 33 36 37
16 10 11 11 13 19 27 35 24 31 55 45 48 49 50 51 49 48 48 49 48 45 52 45 40 39 31 29 34 28 27 27 28 27 29 35 35 37 34 40 37 39 40
28 21 16 18 19 15 4 20 19 34 43 46 65 46 47 47 56 53 51 57 56 57 39 37 37 35 28 32 36 36 36 35 36 34 34 37 38 42 42 40 40 38 41
26 29 19 13 12 11 10 10 13 10 19 37 39 50 43 49 51 50 57 60 69 52 34 31 29 39 38 38 36 38 40 40 38 36 38 36 38 41 41 41 37 34 36
27 21 12 11 6 4 5 3 10 23 21 19 17 12 16 24 24 33 38 44 48 37 29 36 36 46 41 40 42 40 46 45 42 42 40 36 35 39 42 37 39 36 41
33 30 30 26 23 20 19 17 15 5 4 4 5 7 9 18 18 23 28 37 33 25 27 35 34 35 36 42 44 41 44 49 48 42 41 44 36 36 31 36 41 45 43
27 27 28 29 25 27 20 21 16 12 13 13 13 11 9 11 13 15 16 20 24 26 29 31 35 36 38 42 47 50 49 48 46 48 38 40 40 44 49 49 48 45 44
22 23 25 24 23 21 20 15 14 11 7 7 6 7 9 9 9 9 10 13 13 15 17 20 21 25 30 34 38 42 44 45 44 41 45 52 55 50 47 55 59 52 45
24 25 24 23 22 20 18 15 13 10 11 12 11 11 11 12 13 15 18 18 18 20 21 22 22 23 24 24 25 28 32 35 42 46 49 49 51 51 52 51 51 53 49

GFSMA_700_spd_141.txt.gz
Wind_Speed
33 37 39 37 40 37 36 34 32 31 30 28 27 27 27 26 25 24 22 21 18 17 17 18 19 19 19 19 18 21 22 18 22 16 14 12 10 10 11 13 13 14 14
30 30 41 42 42 41 39 38 36 34 32 30 30 30 29 29 28 26 25 23 22 19 19 19 19 20 22 20 18 19 21 24 24 21 17 14 12 12 12 14 14 14 14
39 36 37 39 46 43 44 43 39 38 37 34 34 34 32 31 31 29 28 26 25 23 21 22 20 21 21 19 16 19 20 20 21 22 22 22 21 16 14 14 14 14 14
46 45 44 41 40 51 39 47 45 41 40 38 37 36 35 34 33 32 31 30 28 26 24 23 23 22 22 20 18 17 19 21 19 18 21 20 22 20 16 14 14 14 13
54 53 51 49 43 48 53 54 51 48 43 41 41 40 38 37 35 34 33 32 30 29 27 25 25 23 24 23 21 20 18 19 18 17 17 19 22 21 18 16 14 13 13
58 58 55 55 53 50 51 57 55 53 48 44 44 42 41 39 38 37 35 34 33 32 31 28 27 26 24 25 23 22 23 22 21 19 15 16 20 26 25 20 17 14 14
47 56 58 60 57 57 53 59 57 63 58 45 45 46 45 42 41 39 37 36 36 33 32 32 29 28 26 25 25 25 24 24 23 20 20 19 17 19 23 27 23 21 22
43 48 51 53 57 62 60 58 63 62 66 62 51 49 50 47 45 42 41 39 38 36 34 31 30 30 28 27 26 25 26 25 24 24 22 20 19 18 21 22 23 23 23
46 46 52 51 53 60 61 61 62 64 60 51 62 54 53 52 44 46 42 42 40 38 33 29 29 31 31 29 27 28 27 27 26 25 24 22 22 21 23 24 24 24 22
48 49 51 55 53 55 60 63 66 62 71 66 55 53 50 50 49 48 44 43 42 39 35 30 30 31 31 30 29 27 26 26 26 27 27 26 25 25 25 26 25 24 23
37 41 44 51 52 52 55 62 58 58 42 54 58 46 48 51 50 47 44 42 44 41 39 33 32 32 30 30 29 27 26 26 25 24 26 27 27 27 28 28 28 26 24
29 31 35 45 48 49 52 56 53 51 47 44 51 48 54 51 51 49 45 43 41 39 39 35 35 34 32 31 29 26 25 25 24 23 22 22 24 26 27 27 29 28 27
27 26 31 36 45 46 47 51 50 45 46 47 44 51 62 58 51 50 47 46 41 42 38 40 38 36 35 33 31 28 27 27 27 26 26 25 24 25 25 25 26 27 28
24 23 27 32 37 44 44 47 47 46 43 45 45 49 64 62 55 53 50 44 42 42 39 40 41 40 37 35 32 30 30 30 31 31 31 30 29 28 28 28 26 26 28
27 22 21 20 25 31 34 41 44 42 36 41 43 45 55 42 48 50 49 47 43 43 41 42 43 40 39 37 35 34 33 31 32 32 32 32 31 31 32 32 30 29 28
20 14 14 13 19 22 29 37 39 37 36 31 33 43 47 53 45 52 48 49 45 42 42 41 41 41 40 39 38 36 36 34 34 34 33 30 29 32 34 35 35 33 31
16 14 14 11 11 20 27 33 35 37 34 30 29 35 40 56 60 38 50 52 48 43 42 44 45 44 43 42 41 40 39 38 37 37 35 34 35 39 39 37 36 35 34
6 15 12 10 11 22 28 32 34 34 31 30 27 28 36 46 60 64 51 48 48 44 41 44 46 46 45 43 43 43 43 42 41 40 40 39 41 42 40 36 33 36 35
6 11 9 15 14 17 28 32 33 33 32 30 29 30 31 34 43 51 51 41 50 47 43 42 45 47 46 45 47 46 46 45 45 43 44 41 39 39 40 37 37 35 35
29 15 7 9 5 9 15 20 23 27 32 33 32 33 34 35 41 41 41 44 44 49 43 42 43 44 47 50 51 50 48 50 49 46 46 41 36 34 40 45 47 42 42
44 32 29 31 29 21 16 9 14 18 20 23 28 31 32 37 40 39 40 42 36 34 45 57 51 43 50 54 54 52 45 48 53 53 48 48 48 44 36 37 37 39 40
34 38 42 35 29 29 22 20 13 12 14 27 26 37 41 34 30 32 31 34 43 36 41 48 60 58 53 51 49 51 44 46 60 63 55 43 48 47 47 44 42 44 45
30 30 30 32 35 34 30 28 25 21 17 16 17 19 14 9 10 20 20 30 34 41 47 44 48 42 44 47 47 54 54 61 65 54 46 47 51 49 51 52 51 44 48
27 26 26 27 26 27 28 27 25 19 21 20 19 18 20 20 17 13 12 7 0 12 18 21 30 37 51 48 57 46 44 55 60 49 45 43 49 46 51 45 50 48 49
23 23 24 22 20 21 22 18 17 16 17 15 14 13 11 11 9 8 6 4 2 2 6 8 8 9 9 9 12 16 22 31 43 38 36 40 42 44 44 45 47 51 49
23 22 20 19 19 18 17 17 16 15 14 13 13 12 10 8 9 7 5 6 4 5 6 7 9 11 12 14 15 16 17 19 20 23 28 28 35 40 39 41 44 48 49